Wetterdaten: Dienstag, 28.04.2026
Datum Zeit Temp. Aussen Temp. o. S. Temp +5cm Feuchte Auss Luftdruck Regen Sonnenschein Solar Windböen Empfang
28.04.2026 00:00 12,5 °C 11,7 °C 7,8 °C 62 % 1020,8 hPa 0,0 l/m² 0 min 0 W/m² 12,9 km/h (3 Bft) 94,74 %
28.04.2026 00:02 12,4 °C 11,1 °C 7,8 °C 62 % 1020,8 hPa 0,0 l/m² 0 min 0 W/m² 9,7 km/h (2 Bft) 95,45 %
28.04.2026 00:04 12,4 °C 11,1 °C 7,8 °C 62 % 1020,9 hPa 0,0 l/m² 0 min 0 W/m² 9,7 km/h (2 Bft) 94,00 %
28.04.2026 00:07 12,3 °C 11,1 °C 7,8 °C 63 % 1020,9 hPa 0,0 l/m² 0 min 0 W/m² 9,7 km/h (2 Bft) 97,26 %
28.04.2026 00:08 12,3 °C 11,1 °C 7,8 °C 62 % 1020,9 hPa 0,0 l/m² 0 min 0 W/m² 9,7 km/h (2 Bft) 100,00 %
28.04.2026 00:14 12,2 °C 11,1 °C 7,8 °C 62 % 1020,8 hPa 0,0 l/m² 0 min 0 W/m² 12,9 km/h (3 Bft) 96,34 %
28.04.2026 00:16 12,2 °C 11,1 °C 7,8 °C 62 % 1020,9 hPa 0,0 l/m² 0 min 0 W/m² 12,9 km/h (3 Bft) 91,49 %
28.04.2026 00:18 12,2 °C 11,1 °C 7,8 °C 62 % 1020,9 hPa 0,0 l/m² 0 min 0 W/m² 9,7 km/h (2 Bft) 95,74 %
28.04.2026 00:20 12,2 °C 11,1 °C 7,8 °C 62 % 1020,9 hPa 0,0 l/m² 0 min 0 W/m² 3,2 km/h (1 Bft) 94,29 %
28.04.2026 00:22 12,1 °C 11,1 °C 7,8 °C 62 % 1021,0 hPa 0,0 l/m² 0 min 0 W/m² 9,7 km/h (2 Bft) 94,00 %
28.04.2026 00:24 12,1 °C 11,1 °C 7,8 °C 62 % 1021,0 hPa 0,0 l/m² 0 min 0 W/m² 3,2 km/h (1 Bft) 94,00 %
28.04.2026 00:26 12,1 °C 11,1 °C 7,8 °C 62 % 1021,0 hPa 0,0 l/m² 0 min 0 W/m² 3,2 km/h (1 Bft) 95,65 %
28.04.2026 00:28 12,1 °C 11,1 °C 7,8 °C 62 % 1021,1 hPa 0,0 l/m² 0 min 0 W/m² 9,7 km/h (2 Bft) 95,52 %
28.04.2026 00:30 12,1 °C 11,1 °C 7,8 °C 62 % 1021,0 hPa 0,0 l/m² 0 min 0 W/m² 12,9 km/h (3 Bft) 98,00 %
28.04.2026 00:32 12,0 °C 11,1 °C 7,8 °C 61 % 1021,0 hPa 0,0 l/m² 0 min 0 W/m² 6,4 km/h (2 Bft) 96,00 %
28.04.2026 00:34 12,0 °C 11,1 °C 7,8 °C 62 % 1020,9 hPa 0,0 l/m² 0 min 0 W/m² 9,7 km/h (2 Bft) 96,00 %
28.04.2026 00:36 11,9 °C 11,1 °C 7,8 °C 61 % 1020,9 hPa 0,0 l/m² 0 min 0 W/m² 12,9 km/h (3 Bft) 95,74 %
28.04.2026 00:38 11,9 °C 11,1 °C 7,8 °C 61 % 1021,0 hPa 0,0 l/m² 0 min 0 W/m² 6,4 km/h (2 Bft) 95,65 %
28.04.2026 00:40 11,9 °C 11,1 °C 7,8 °C 61 % 1021,0 hPa 0,0 l/m² 0 min 0 W/m² 6,4 km/h (2 Bft) 97,87 %
28.04.2026 00:42 11,9 °C 11,1 °C 7,8 °C 61 % 1020,9 hPa 0,0 l/m² 0 min 0 W/m² 9,7 km/h (2 Bft) 97,87 %
28.04.2026 00:44 11,9 °C 11,1 °C 7,8 °C 62 % 1020,9 hPa 0,0 l/m² 0 min 0 W/m² 6,4 km/h (2 Bft) 97,14 %
28.04.2026 00:46 11,8 °C 11,1 °C 7,8 °C 62 % 1020,9 hPa 0,0 l/m² 0 min 0 W/m² 6,4 km/h (2 Bft) 98,11 %
28.04.2026 00:48 11,8 °C 11,1 °C 7,8 °C 62 % 1020,8 hPa 0,0 l/m² 0 min 0 W/m² 9,7 km/h (2 Bft) 97,87 %
28.04.2026 00:50 11,8 °C 11,1 °C 7,8 °C 61 % 1020,8 hPa 0,0 l/m² 0 min 0 W/m² 19,3 km/h (3 Bft) 100,00 %
28.04.2026 00:52 11,8 °C 11,1 °C 7,8 °C 61 % 1020,9 hPa 0,0 l/m² 0 min 0 W/m² 6,4 km/h (2 Bft) 100,00 %
28.04.2026 00:54 11,8 °C 11,1 °C 7,8 °C 61 % 1020,8 hPa 0,0 l/m² 0 min 0 W/m² 19,3 km/h (3 Bft) 97,37 %
28.04.2026 00:56 11,8 °C 11,1 °C 7,8 °C 61 % 1020,9 hPa 0,0 l/m² 0 min 0 W/m² 9,7 km/h (2 Bft) 100,00 %
28.04.2026 00:58 11,8 °C 11,1 °C 7,8 °C 61 % 1020,8 hPa 0,0 l/m² 0 min 0 W/m² 9,7 km/h (2 Bft) 100,00 %
28.04.2026 01:00 11,8 °C 11,1 °C 7,8 °C 61 % 1020,9 hPa 0,0 l/m² 0 min 0 W/m² 19,3 km/h (3 Bft) 97,78 %
28.04.2026 01:02 11,8 °C 11,1 °C 7,8 °C 61 % 1020,8 hPa 0,0 l/m² 0 min 0 W/m² 12,9 km/h (3 Bft) 100,00 %
28.04.2026 01:04 11,8 °C 11,1 °C 7,8 °C 61 % 1020,8 hPa 0,0 l/m² 0 min 0 W/m² 12,9 km/h (3 Bft) 100,00 %
28.04.2026 01:06 11,8 °C 11,1 °C 7,8 °C 61 % 1020,8 hPa 0,0 l/m² 0 min 0 W/m² 19,3 km/h (3 Bft) 100,00 %
28.04.2026 01:08 11,8 °C 11,1 °C 7,8 °C 62 % 1020,8 hPa 0,0 l/m² 0 min 0 W/m² 19,3 km/h (3 Bft) 98,00 %
28.04.2026 01:10 11,8 °C 11,1 °C 7,8 °C 61 % 1020,8 hPa 0,0 l/m² 0 min 0 W/m² 16,1 km/h (3 Bft) 100,00 %
28.04.2026 01:12 11,8 °C 11,1 °C 7,8 °C 62 % 1020,7 hPa 0,0 l/m² 0 min 0 W/m² 9,7 km/h (2 Bft) 100,00 %
28.04.2026 01:14 11,8 °C 11,1 °C 7,8 °C 61 % 1020,7 hPa 0,0 l/m² 0 min 0 W/m² 19,3 km/h (3 Bft) 97,83 %
28.04.2026 01:16 11,8 °C 11,1 °C 7,8 °C 61 % 1020,8 hPa 0,0 l/m² 0 min 0 W/m² 6,4 km/h (2 Bft) 94,00 %
28.04.2026 01:18 11,8 °C 11,1 °C 7,8 °C 62 % 1020,7 hPa 0,0 l/m² 0 min 0 W/m² 12,9 km/h (3 Bft) 97,87 %
28.04.2026 01:20 11,8 °C 11,1 °C 7,8 °C 61 % 1020,7 hPa 0,0 l/m² 0 min 0 W/m² 12,9 km/h (3 Bft) 97,87 %
28.04.2026 01:22 11,8 °C 11,1 °C 7,8 °C 62 % 1020,7 hPa 0,0 l/m² 0 min 0 W/m² 16,1 km/h (3 Bft) 95,74 %
28.04.2026 01:24 11,8 °C 11,1 °C 7,8 °C 61 % 1020,8 hPa 0,0 l/m² 0 min 0 W/m² 12,9 km/h (3 Bft) 97,87 %
28.04.2026 01:26 11,8 °C 11,1 °C 7,8 °C 61 % 1020,8 hPa 0,0 l/m² 0 min 0 W/m² 12,9 km/h (3 Bft) 95,74 %
28.04.2026 01:28 11,8 °C 11,1 °C 7,8 °C 61 % 1020,7 hPa 0,0 l/m² 0 min 0 W/m² 16,1 km/h (3 Bft) 97,87 %
28.04.2026 01:30 11,8 °C 11,1 °C 7,8 °C 61 % 1020,7 hPa 0,0 l/m² 0 min 0 W/m² 12,9 km/h (3 Bft) 97,83 %
28.04.2026 01:32 11,8 °C 11,1 °C 7,8 °C 61 % 1020,7 hPa 0,0 l/m² 0 min 0 W/m² 19,3 km/h (3 Bft) 100,00 %
28.04.2026 01:34 11,7 °C 11,1 °C 7,8 °C 61 % 1020,7 hPa 0,0 l/m² 0 min 0 W/m² 9,7 km/h (2 Bft) 96,72 %
28.04.2026 01:36 11,7 °C 11,1 °C 7,8 °C 61 % 1020,7 hPa 0,0 l/m² 0 min 0 W/m² 16,1 km/h (3 Bft) 95,74 %
28.04.2026 01:38 11,7 °C 11,1 °C 7,2 °C 61 % 1020,8 hPa 0,0 l/m² 0 min 0 W/m² 25,7 km/h (4 Bft) 97,37 %
28.04.2026 01:40 11,7 °C 10,6 °C 7,2 °C 61 % 1020,8 hPa 0,0 l/m² 0 min 0 W/m² 16,1 km/h (3 Bft) 95,74 %
28.04.2026 01:42 11,7 °C 10,6 °C 7,2 °C 62 % 1020,8 hPa 0,0 l/m² 0 min 0 W/m² 9,7 km/h (2 Bft) 100,00 %
28.04.2026 01:44 11,7 °C 10,6 °C 7,2 °C 62 % 1020,9 hPa 0,0 l/m² 0 min 0 W/m² 12,9 km/h (3 Bft) 98,00 %
28.04.2026 01:46 11,6 °C 10,6 °C 7,2 °C 61 % 1020,8 hPa 0,0 l/m² 0 min 0 W/m² 12,9 km/h (3 Bft) 100,00 %
28.04.2026 01:48 11,6 °C 10,6 °C 7,2 °C 61 % 1020,8 hPa 0,0 l/m² 0 min 0 W/m² 9,7 km/h (2 Bft) 100,00 %
28.04.2026 01:50 11,6 °C 10,6 °C 7,2 °C 62 % 1020,8 hPa 0,0 l/m² 0 min 0 W/m² 9,7 km/h (2 Bft) 100,00 %
28.04.2026 01:52 11,6 °C 10,6 °C 7,2 °C 62 % 1020,9 hPa 0,0 l/m² 0 min 0 W/m² 9,7 km/h (2 Bft) 100,00 %
28.04.2026 01:54 11,6 °C 10,6 °C 7,2 °C 62 % 1020,8 hPa 0,0 l/m² 0 min 0 W/m² 12,9 km/h (3 Bft) 100,00 %
28.04.2026 01:56 11,5 °C 10,6 °C 7,2 °C 62 % 1020,9 hPa 0,0 l/m² 0 min 0 W/m² 22,5 km/h (4 Bft) 100,00 %
28.04.2026 01:58 11,4 °C 10,6 °C 7,2 °C 62 % 1020,9 hPa 0,0 l/m² 0 min 0 W/m² 12,9 km/h (3 Bft) 100,00 %
28.04.2026 02:00 11,4 °C 10,6 °C 7,2 °C 63 % 1020,9 hPa 0,0 l/m² 0 min 0 W/m² 9,7 km/h (2 Bft) 100,00 %
28.04.2026 02:02 11,4 °C 10,6 °C 7,2 °C 63 % 1020,9 hPa 0,0 l/m² 0 min 0 W/m² 9,7 km/h (2 Bft) 100,00 %
28.04.2026 02:04 11,4 °C 10,6 °C 7,2 °C 63 % 1021,0 hPa 0,0 l/m² 0 min 0 W/m² 16,1 km/h (3 Bft) 98,00 %
28.04.2026 02:06 11,3 °C 10,6 °C 7,2 °C 63 % 1021,0 hPa 0,0 l/m² 0 min 0 W/m² 12,9 km/h (3 Bft) 100,00 %
28.04.2026 02:08 11,3 °C 10,6 °C 7,2 °C 63 % 1021,0 hPa 0,0 l/m² 0 min 0 W/m² 6,4 km/h (2 Bft) 97,87 %
28.04.2026 02:10 11,3 °C 10,6 °C 7,2 °C 63 % 1021,1 hPa 0,0 l/m² 0 min 0 W/m² 12,9 km/h (3 Bft) 100,00 %
28.04.2026 02:12 11,2 °C 10,0 °C 6,7 °C 63 % 1021,0 hPa 0,0 l/m² 0 min 0 W/m² 9,7 km/h (2 Bft) 100,00 %
28.04.2026 02:14 11,2 °C 10,0 °C 6,7 °C 63 % 1021,1 hPa 0,0 l/m² 0 min 0 W/m² 19,3 km/h (3 Bft) 100,00 %
28.04.2026 02:16 11,2 °C 10,0 °C 6,7 °C 63 % 1021,1 hPa 0,0 l/m² 0 min 0 W/m² 9,7 km/h (2 Bft) 100,00 %
28.04.2026 02:18 11,1 °C 10,0 °C 6,7 °C 63 % 1021,1 hPa 0,0 l/m² 0 min 0 W/m² 6,4 km/h (2 Bft) 97,83 %
28.04.2026 02:20 11,1 °C 10,0 °C 6,7 °C 64 % 1021,2 hPa 0,0 l/m² 0 min 0 W/m² 6,4 km/h (2 Bft) 100,00 %
28.04.2026 02:22 11,1 °C 10,0 °C 6,7 °C 64 % 1021,2 hPa 0,0 l/m² 0 min 0 W/m² 12,9 km/h (3 Bft) 97,87 %
28.04.2026 02:24 11,0 °C 10,0 °C 6,7 °C 64 % 1021,1 hPa 0,0 l/m² 0 min 0 W/m² 12,9 km/h (3 Bft) 100,00 %
28.04.2026 02:26 10,9 °C 10,0 °C 6,7 °C 65 % 1021,1 hPa 0,0 l/m² 0 min 0 W/m² 9,7 km/h (2 Bft) 100,00 %
28.04.2026 02:28 10,9 °C 10,0 °C 6,7 °C 64 % 1021,1 hPa 0,0 l/m² 0 min 0 W/m² 12,9 km/h (3 Bft) 98,00 %
28.04.2026 02:30 10,9 °C 10,0 °C 6,7 °C 65 % 1021,1 hPa 0,0 l/m² 0 min 0 W/m² 12,9 km/h (3 Bft) 100,00 %
28.04.2026 02:32 10,8 °C 10,0 °C 6,7 °C 65 % 1021,1 hPa 0,0 l/m² 0 min 0 W/m² 6,4 km/h (2 Bft) 97,87 %
28.04.2026 02:34 10,8 °C 10,0 °C 6,7 °C 65 % 1021,1 hPa 0,0 l/m² 0 min 0 W/m² 6,4 km/h (2 Bft) 100,00 %
28.04.2026 02:36 10,8 °C 9,4 °C 6,7 °C 65 % 1021,2 hPa 0,0 l/m² 0 min 0 W/m² 12,9 km/h (3 Bft) 97,83 %
28.04.2026 02:38 10,7 °C 9,4 °C 6,7 °C 65 % 1021,1 hPa 0,0 l/m² 0 min 0 W/m² 6,4 km/h (2 Bft) 98,00 %
28.04.2026 02:40 10,7 °C 9,4 °C 6,1 °C 65 % 1021,1 hPa 0,0 l/m² 0 min 0 W/m² 12,9 km/h (3 Bft) 95,74 %
28.04.2026 02:42 10,6 °C 9,4 °C 6,1 °C 66 % 1021,1 hPa 0,0 l/m² 0 min 0 W/m² 9,7 km/h (2 Bft) 94,74 %
28.04.2026 02:44 10,6 °C 9,4 °C 6,1 °C 66 % 1021,0 hPa 0,0 l/m² 0 min 0 W/m² 6,4 km/h (2 Bft) 95,74 %
28.04.2026 02:46 10,6 °C 9,4 °C 6,1 °C 66 % 1021,0 hPa 0,0 l/m² 0 min 0 W/m² 6,4 km/h (2 Bft) 94,00 %
28.04.2026 02:48 10,5 °C 9,4 °C 6,1 °C 66 % 1021,0 hPa 0,0 l/m² 0 min 0 W/m² 6,4 km/h (2 Bft) 94,64 %
28.04.2026 02:50 10,5 °C 9,4 °C 6,1 °C 67 % 1021,1 hPa 0,0 l/m² 0 min 0 W/m² 6,4 km/h (2 Bft) 94,29 %
28.04.2026 02:52 10,4 °C 9,4 °C 6,1 °C 67 % 1021,1 hPa 0,0 l/m² 0 min 0 W/m² 9,7 km/h (2 Bft) 94,83 %
28.04.2026 02:54 10,4 °C 9,4 °C 6,1 °C 67 % 1021,1 hPa 0,0 l/m² 0 min 0 W/m² 3,2 km/h (1 Bft) 94,29 %
28.04.2026 02:56 10,4 °C 9,4 °C 6,1 °C 67 % 1021,1 hPa 0,0 l/m² 0 min 0 W/m² 3,2 km/h (1 Bft) 95,74 %
28.04.2026 02:58 10,3 °C 9,4 °C 6,1 °C 67 % 1021,1 hPa 0,0 l/m² 0 min 0 W/m² 3,2 km/h (1 Bft) 93,62 %
28.04.2026 03:00 10,3 °C 8,9 °C 6,1 °C 67 % 1021,1 hPa 0,0 l/m² 0 min 0 W/m² 6,4 km/h (2 Bft) 93,62 %
28.04.2026 03:02 10,3 °C 8,9 °C 6,1 °C 67 % 1021,2 hPa 0,0 l/m² 0 min 0 W/m² 3,2 km/h (1 Bft) 94,00 %
28.04.2026 03:04 10,2 °C 8,9 °C 6,1 °C 68 % 1021,2 hPa 0,0 l/m² 0 min 0 W/m² 6,4 km/h (2 Bft) 87,23 %
28.04.2026 03:06 10,2 °C 8,9 °C 5,6 °C 68 % 1021,2 hPa 0,0 l/m² 0 min 0 W/m² 3,2 km/h (1 Bft) 94,83 %
28.04.2026 03:08 10,2 °C 8,9 °C 5,6 °C 68 % 1021,2 hPa 0,0 l/m² 0 min 0 W/m² 6,4 km/h (2 Bft) 92,11 %
28.04.2026 03:10 10,1 °C 8,9 °C 5,6 °C 68 % 1021,2 hPa 0,0 l/m² 0 min 0 W/m² 6,4 km/h (2 Bft) 91,49 %
28.04.2026 03:12 10,1 °C 8,9 °C 5,6 °C 69 % 1021,1 hPa 0,0 l/m² 0 min 0 W/m² 6,4 km/h (2 Bft) 93,62 %
28.04.2026 03:14 10,1 °C 8,9 °C 5,6 °C 69 % 1021,1 hPa 0,0 l/m² 0 min 0 W/m² 12,9 km/h (3 Bft) 95,74 %
28.04.2026 03:16 10,1 °C 8,9 °C 5,6 °C 68 % 1021,1 hPa 0,0 l/m² 0 min 0 W/m² 9,7 km/h (2 Bft) 95,74 %
28.04.2026 03:18 10,0 °C 8,9 °C 5,6 °C 68 % 1021,1 hPa 0,0 l/m² 0 min 0 W/m² 9,7 km/h (2 Bft) 94,00 %
28.04.2026 03:20 10,0 °C 8,9 °C 5,6 °C 69 % 1021,1 hPa 0,0 l/m² 0 min 0 W/m² 12,9 km/h (3 Bft) 95,12 %
28.04.2026 03:22 9,9 °C 8,9 °C 5,6 °C 69 % 1021,2 hPa 0,0 l/m² 0 min 0 W/m² 3,2 km/h (1 Bft) 93,48 %
28.04.2026 03:24 9,9 °C 8,9 °C 5,6 °C 69 % 1021,1 hPa 0,0 l/m² 0 min 0 W/m² 9,7 km/h (2 Bft) 95,74 %
28.04.2026 03:26 9,9 °C 8,9 °C 5,6 °C 69 % 1021,2 hPa 0,0 l/m² 0 min 0 W/m² 6,4 km/h (2 Bft) 95,74 %
28.04.2026 03:28 9,8 °C 8,9 °C 5,6 °C 70 % 1021,2 hPa 0,0 l/m² 0 min 0 W/m² 3,2 km/h (1 Bft) 95,74 %
28.04.2026 03:30 9,8 °C 8,9 °C 5,6 °C 70 % 1021,2 hPa 0,0 l/m² 0 min 0 W/m² 9,7 km/h (2 Bft) 97,87 %
28.04.2026 03:32 9,8 °C 8,9 °C 5,6 °C 70 % 1021,2 hPa 0,0 l/m² 0 min 0 W/m² 6,4 km/h (2 Bft) 97,87 %
28.04.2026 03:34 9,8 °C 8,9 °C 5,6 °C 70 % 1021,2 hPa 0,0 l/m² 0 min 0 W/m² 6,4 km/h (2 Bft) 97,87 %
28.04.2026 03:36 9,7 °C 8,3 °C 5,6 °C 70 % 1021,2 hPa 0,0 l/m² 0 min 0 W/m² 3,2 km/h (1 Bft) 97,83 %
28.04.2026 03:38 9,7 °C 8,3 °C 5,6 °C 70 % 1021,2 hPa 0,0 l/m² 0 min 0 W/m² 6,4 km/h (2 Bft) 97,87 %
28.04.2026 03:40 9,7 °C 8,3 °C 5,6 °C 70 % 1021,2 hPa 0,0 l/m² 0 min 0 W/m² 6,4 km/h (2 Bft) 100,00 %
28.04.2026 03:42 9,7 °C 8,3 °C 5,6 °C 70 % 1021,2 hPa 0,0 l/m² 0 min 0 W/m² 6,4 km/h (2 Bft) 100,00 %
28.04.2026 03:44 9,7 °C 8,3 °C 5,6 °C 71 % 1021,1 hPa 0,0 l/m² 0 min 0 W/m² 6,4 km/h (2 Bft) 100,00 %
28.04.2026 03:46 9,6 °C 8,3 °C 5,6 °C 71 % 1021,2 hPa 0,0 l/m² 0 min 0 W/m² 3,2 km/h (1 Bft) 95,74 %
28.04.2026 03:48 9,6 °C 8,3 °C 5,6 °C 71 % 1021,1 hPa 0,0 l/m² 0 min 0 W/m² 12,9 km/h (3 Bft) 100,00 %
28.04.2026 03:50 9,6 °C 8,3 °C 5,6 °C 71 % 1021,1 hPa 0,0 l/m² 0 min 0 W/m² 6,4 km/h (2 Bft) 94,29 %
28.04.2026 03:52 9,6 °C 8,3 °C 5,6 °C 71 % 1021,1 hPa 0,0 l/m² 0 min 0 W/m² 9,7 km/h (2 Bft) 100,00 %
28.04.2026 03:54 9,5 °C 8,3 °C 5,6 °C 71 % 1021,1 hPa 0,0 l/m² 0 min 0 W/m² 9,7 km/h (2 Bft) 97,96 %
28.04.2026 03:56 9,5 °C 8,3 °C 5,6 °C 71 % 1021,1 hPa 0,0 l/m² 0 min 0 W/m² 9,7 km/h (2 Bft) 97,87 %
28.04.2026 03:58 9,5 °C 8,3 °C 5,6 °C 71 % 1021,1 hPa 0,0 l/m² 0 min 0 W/m² 9,7 km/h (2 Bft) 97,87 %
28.04.2026 04:00 9,4 °C 8,3 °C 5,0 °C 71 % 1021,1 hPa 0,0 l/m² 0 min 0 W/m² 6,4 km/h (2 Bft) 100,00 %
28.04.2026 04:02 9,4 °C 8,3 °C 5,0 °C 72 % 1021,1 hPa 0,0 l/m² 0 min 0 W/m² 6,4 km/h (2 Bft) 100,00 %
28.04.2026 04:04 9,4 °C 8,3 °C 5,0 °C 71 % 1021,1 hPa 0,0 l/m² 0 min 0 W/m² 9,7 km/h (2 Bft) 100,00 %
28.04.2026 04:06 9,4 °C 8,3 °C 5,0 °C 72 % 1021,1 hPa 0,0 l/m² 0 min 0 W/m² 6,4 km/h (2 Bft) 95,65 %
28.04.2026 04:08 9,3 °C 8,3 °C 5,0 °C 72 % 1021,1 hPa 0,0 l/m² 0 min 0 W/m² 6,4 km/h (2 Bft) 100,00 %
28.04.2026 04:10 9,3 °C 8,3 °C 5,0 °C 72 % 1021,2 hPa 0,0 l/m² 0 min 0 W/m² 6,4 km/h (2 Bft) 100,00 %
28.04.2026 04:12 9,3 °C 8,3 °C 5,0 °C 72 % 1021,2 hPa 0,0 l/m² 0 min 0 W/m² 3,2 km/h (1 Bft) 100,00 %
28.04.2026 04:14 9,3 °C 8,3 °C 5,0 °C 72 % 1021,2 hPa 0,0 l/m² 0 min 0 W/m² 3,2 km/h (1 Bft) 100,00 %
28.04.2026 04:16 9,3 °C 8,3 °C 5,0 °C 72 % 1021,2 hPa 0,0 l/m² 0 min 0 W/m² 6,4 km/h (2 Bft) 100,00 %
28.04.2026 04:18 9,3 °C 8,3 °C 5,0 °C 72 % 1021,2 hPa 0,0 l/m² 0 min 0 W/m² 3,2 km/h (1 Bft) 100,00 %
28.04.2026 04:20 9,2 °C 7,8 °C 5,0 °C 72 % 1021,2 hPa 0,0 l/m² 0 min 0 W/m² 3,2 km/h (1 Bft) 97,87 %
28.04.2026 04:22 9,2 °C 7,8 °C 5,0 °C 72 % 1021,1 hPa 0,0 l/m² 0 min 0 W/m² 6,4 km/h (2 Bft) 100,00 %
28.04.2026 04:24 9,2 °C 7,8 °C 5,0 °C 73 % 1021,2 hPa 0,0 l/m² 0 min 0 W/m² 12,9 km/h (3 Bft) 100,00 %
28.04.2026 04:26 9,2 °C 7,8 °C 5,0 °C 73 % 1021,1 hPa 0,0 l/m² 0 min 0 W/m² 6,4 km/h (2 Bft) 100,00 %
28.04.2026 04:28 9,1 °C 7,8 °C 5,0 °C 73 % 1021,1 hPa 0,0 l/m² 0 min 0 W/m² 6,4 km/h (2 Bft) 97,87 %
28.04.2026 04:30 9,1 °C 7,8 °C 5,0 °C 73 % 1021,1 hPa 0,0 l/m² 0 min 0 W/m² 9,7 km/h (2 Bft) 97,87 %
28.04.2026 04:32 9,1 °C 7,8 °C 5,0 °C 73 % 1021,1 hPa 0,0 l/m² 0 min 0 W/m² 6,4 km/h (2 Bft) 97,87 %
28.04.2026 04:34 9,1 °C 7,8 °C 5,0 °C 73 % 1021,1 hPa 0,0 l/m² 0 min 0 W/m² 9,7 km/h (2 Bft) 100,00 %
28.04.2026 04:36 9,1 °C 7,8 °C 5,0 °C 73 % 1021,1 hPa 0,0 l/m² 0 min 0 W/m² 6,4 km/h (2 Bft) 100,00 %
28.04.2026 04:38 9,0 °C 7,8 °C 5,0 °C 73 % 1021,1 hPa 0,0 l/m² 0 min 0 W/m² 6,4 km/h (2 Bft) 100,00 %
28.04.2026 04:40 9,0 °C 7,8 °C 5,0 °C 73 % 1021,1 hPa 0,0 l/m² 0 min 0 W/m² 3,2 km/h (1 Bft) 98,39 %
28.04.2026 04:42 8,9 °C 7,8 °C 5,0 °C 73 % 1021,1 hPa 0,0 l/m² 0 min 0 W/m² 6,4 km/h (2 Bft) 97,83 %
28.04.2026 04:44 8,9 °C 7,8 °C 5,0 °C 73 % 1021,1 hPa 0,0 l/m² 0 min 0 W/m² 3,2 km/h (1 Bft) 98,00 %
28.04.2026 04:46 8,9 °C 7,8 °C 4,4 °C 74 % 1021,2 hPa 0,0 l/m² 0 min 0 W/m² 9,7 km/h (2 Bft) 95,74 %
28.04.2026 04:48 8,9 °C 7,8 °C 4,4 °C 74 % 1021,2 hPa 0,0 l/m² 0 min 0 W/m² 6,4 km/h (2 Bft) 95,74 %
28.04.2026 04:50 8,9 °C 7,8 °C 4,4 °C 74 % 1021,2 hPa 0,0 l/m² 0 min 0 W/m² 6,4 km/h (2 Bft) 95,74 %
28.04.2026 04:52 8,8 °C 7,8 °C 4,4 °C 74 % 1021,1 hPa 0,0 l/m² 0 min 0 W/m² 6,4 km/h (2 Bft) 95,74 %
28.04.2026 04:54 8,8 °C 7,8 °C 4,4 °C 74 % 1021,1 hPa 0,0 l/m² 0 min 0 W/m² 6,4 km/h (2 Bft) 95,74 %
28.04.2026 04:56 8,8 °C 7,8 °C 4,4 °C 74 % 1021,1 hPa 0,0 l/m² 0 min 0 W/m² 12,9 km/h (3 Bft) 95,65 %
28.04.2026 04:58 8,8 °C 7,8 °C 4,4 °C 74 % 1021,1 hPa 0,0 l/m² 0 min 0 W/m² 6,4 km/h (2 Bft) 95,24 %
28.04.2026 05:00 8,8 °C 7,8 °C 4,4 °C 74 % 1021,1 hPa 0,0 l/m² 0 min 0 W/m² 9,7 km/h (2 Bft) 94,83 %
28.04.2026 05:02 8,8 °C 7,8 °C 4,4 °C 74 % 1021,1 hPa 0,0 l/m² 0 min 0 W/m² 6,4 km/h (2 Bft) 100,00 %
28.04.2026 05:04 8,8 °C 7,8 °C 4,4 °C 74 % 1021,1 hPa 0,0 l/m² 0 min 0 W/m² 3,2 km/h (1 Bft) 92,98 %
28.04.2026 05:06 8,8 °C 7,8 °C 4,4 °C 74 % 1021,0 hPa 0,0 l/m² 0 min 0 W/m² 6,4 km/h (2 Bft) 95,74 %
28.04.2026 05:08 8,8 °C 7,8 °C 4,4 °C 74 % 1021,0 hPa 0,0 l/m² 0 min 0 W/m² 9,7 km/h (2 Bft) 93,62 %
28.04.2026 05:10 8,7 °C 7,8 °C 4,4 °C 74 % 1021,0 hPa 0,0 l/m² 0 min 0 W/m² 6,4 km/h (2 Bft) 95,74 %
28.04.2026 05:12 8,7 °C 7,8 °C 4,4 °C 75 % 1021,0 hPa 0,0 l/m² 0 min 0 W/m² 6,4 km/h (2 Bft) 95,65 %
28.04.2026 05:14 8,7 °C 7,8 °C 4,4 °C 74 % 1021,0 hPa 0,0 l/m² 0 min 0 W/m² 6,4 km/h (2 Bft) 97,87 %
28.04.2026 05:16 8,7 °C 7,8 °C 4,4 °C 74 % 1021,1 hPa 0,0 l/m² 0 min 0 W/m² 6,4 km/h (2 Bft) 97,37 %
28.04.2026 05:18 8,7 °C 7,8 °C 4,4 °C 74 % 1021,0 hPa 0,0 l/m² 0 min 0 W/m² 6,4 km/h (2 Bft) 93,62 %
28.04.2026 05:20 8,6 °C 7,8 °C 4,4 °C 74 % 1021,0 hPa 0,0 l/m² 0 min 0 W/m² 6,4 km/h (2 Bft) 97,87 %
28.04.2026 05:22 8,6 °C 7,8 °C 4,4 °C 74 % 1021,0 hPa 0,0 l/m² 0 min 0 W/m² 9,7 km/h (2 Bft) 97,87 %
28.04.2026 05:24 8,6 °C 7,8 °C 4,4 °C 75 % 1021,0 hPa 0,0 l/m² 0 min 0 W/m² 6,4 km/h (2 Bft) 100,00 %
28.04.2026 05:26 8,6 °C 7,8 °C 4,4 °C 75 % 1021,0 hPa 0,0 l/m² 0 min 0 W/m² 9,7 km/h (2 Bft) 100,00 %
28.04.2026 05:28 8,6 °C 7,8 °C 4,4 °C 75 % 1020,9 hPa 0,0 l/m² 0 min 0 W/m² 9,7 km/h (2 Bft) 100,00 %
28.04.2026 05:30 8,6 °C 7,8 °C 4,4 °C 75 % 1020,9 hPa 0,0 l/m² 0 min 0 W/m² 6,4 km/h (2 Bft) 100,00 %
28.04.2026 05:32 8,6 °C 7,8 °C 4,4 °C 75 % 1020,9 hPa 0,0 l/m² 0 min 0 W/m² 6,4 km/h (2 Bft) 97,96 %
28.04.2026 05:34 8,6 °C 7,2 °C 4,4 °C 75 % 1020,9 hPa 0,0 l/m² 0 min 0 W/m² 12,9 km/h (3 Bft) 98,00 %
28.04.2026 05:36 8,5 °C 7,2 °C 4,4 °C 75 % 1020,9 hPa 0,0 l/m² 0 min 0 W/m² 6,4 km/h (2 Bft) 100,00 %
28.04.2026 05:38 8,5 °C 7,2 °C 4,4 °C 75 % 1020,9 hPa 0,0 l/m² 0 min 0 W/m² 6,4 km/h (2 Bft) 100,00 %
28.04.2026 05:40 8,5 °C 7,2 °C 4,4 °C 75 % 1020,9 hPa 0,0 l/m² 0 min 0 W/m² 6,4 km/h (2 Bft) 100,00 %
28.04.2026 05:42 8,5 °C 7,2 °C 4,4 °C 75 % 1020,9 hPa 0,0 l/m² 0 min 0 W/m² 6,4 km/h (2 Bft) 97,87 %
28.04.2026 05:44 8,4 °C 7,2 °C 4,4 °C 75 % 1020,9 hPa 0,0 l/m² 0 min 0 W/m² 6,4 km/h (2 Bft) 100,00 %
28.04.2026 05:46 8,4 °C 7,2 °C 4,4 °C 75 % 1020,9 hPa 0,0 l/m² 0 min 0 W/m² 6,4 km/h (2 Bft) 100,00 %
28.04.2026 05:48 8,4 °C 7,2 °C 4,4 °C 75 % 1020,9 hPa 0,0 l/m² 0 min 0 W/m² 6,4 km/h (2 Bft) 97,87 %
28.04.2026 05:50 8,4 °C 7,2 °C 4,4 °C 75 % 1020,9 hPa 0,0 l/m² 0 min 0 W/m² 9,7 km/h (2 Bft) 100,00 %
28.04.2026 05:52 8,4 °C 7,2 °C 4,4 °C 75 % 1020,9 hPa 0,0 l/m² 0 min 0 W/m² 12,9 km/h (3 Bft) 100,00 %
28.04.2026 05:54 8,4 °C 7,2 °C 4,4 °C 75 % 1020,9 hPa 0,0 l/m² 0 min 0 W/m² 9,7 km/h (2 Bft) 97,87 %
28.04.2026 05:56 8,4 °C 7,2 °C 4,4 °C 75 % 1020,9 hPa 0,0 l/m² 0 min 0 W/m² 6,4 km/h (2 Bft) 100,00 %
28.04.2026 05:58 8,4 °C 7,2 °C 4,4 °C 75 % 1020,9 hPa 0,0 l/m² 0 min 0 W/m² 9,7 km/h (2 Bft) 100,00 %
28.04.2026 06:00 8,3 °C 7,2 °C 4,4 °C 75 % 1020,9 hPa 0,0 l/m² 0 min 0 W/m² 6,4 km/h (2 Bft) 100,00 %
28.04.2026 06:02 8,3 °C 7,2 °C 4,4 °C 75 % 1020,8 hPa 0,0 l/m² 0 min 0 W/m² 3,2 km/h (1 Bft) 100,00 %
28.04.2026 06:04 8,3 °C 7,2 °C 4,4 °C 75 % 1020,8 hPa 0,0 l/m² 0 min 0 W/m² 6,4 km/h (2 Bft) 97,87 %
28.04.2026 06:08 8,3 °C 7,2 °C 4,4 °C 75 % 1020,8 hPa 0,0 l/m² 0 min 0 W/m² 6,4 km/h (2 Bft) 92,47 %
28.04.2026 06:10 8,3 °C 7,2 °C 4,4 °C 76 % 1020,8 hPa 0,0 l/m² 0 min 0 W/m² 3,2 km/h (1 Bft) 95,74 %
28.04.2026 06:12 8,3 °C 7,2 °C 4,4 °C 76 % 1020,8 hPa 0,0 l/m² 0 min 0 W/m² 3,2 km/h (1 Bft) 95,74 %
28.04.2026 06:14 8,3 °C 7,2 °C 4,4 °C 76 % 1020,8 hPa 0,0 l/m² 0 min 0 W/m² 12,9 km/h (3 Bft) 97,87 %
28.04.2026 06:16 8,3 °C 7,8 °C 4,4 °C 75 % 1020,8 hPa 0,0 l/m² 0 min 0 W/m² 9,7 km/h (2 Bft) 97,87 %
28.04.2026 06:18 8,3 °C 7,8 °C 4,4 °C 76 % 1020,8 hPa 0,0 l/m² 0 min 0 W/m² 9,7 km/h (2 Bft) 97,87 %
28.04.2026 06:20 8,3 °C 7,2 °C 4,4 °C 76 % 1020,8 hPa 0,0 l/m² 0 min 0 W/m² 9,7 km/h (2 Bft) 98,00 %
28.04.2026 06:22 8,3 °C 7,2 °C 4,4 °C 75 % 1020,7 hPa 0,0 l/m² 0 min 1 W/m² 9,7 km/h (2 Bft) 97,37 %
28.04.2026 06:24 8,3 °C 7,2 °C 4,4 °C 76 % 1020,7 hPa 0,0 l/m² 0 min 5 W/m² 9,7 km/h (2 Bft) 95,74 %
28.04.2026 06:26 8,3 °C 7,2 °C 4,4 °C 76 % 1020,7 hPa 0,0 l/m² 0 min 5 W/m² 6,4 km/h (2 Bft) 97,78 %
28.04.2026 06:28 8,3 °C 7,2 °C 4,4 °C 76 % 1020,7 hPa 0,0 l/m² 0 min 6 W/m² 6,4 km/h (2 Bft) 95,74 %
28.04.2026 06:30 8,3 °C 7,2 °C 4,4 °C 76 % 1020,7 hPa 0,0 l/m² 0 min 7 W/m² 6,4 km/h (2 Bft) 92,59 %
28.04.2026 06:32 8,3 °C 7,8 °C 4,4 °C 76 % 1020,7 hPa 0,0 l/m² 0 min 9 W/m² 9,7 km/h (2 Bft) 95,74 %
28.04.2026 06:34 8,3 °C 7,8 °C 4,4 °C 76 % 1020,7 hPa 0,0 l/m² 0 min 10 W/m² 6,4 km/h (2 Bft) 95,74 %
28.04.2026 06:36 8,3 °C 7,8 °C 4,4 °C 76 % 1020,7 hPa 0,0 l/m² 0 min 12 W/m² 6,4 km/h (2 Bft) 95,74 %
28.04.2026 06:38 8,3 °C 7,8 °C 4,4 °C 76 % 1020,7 hPa 0,0 l/m² 0 min 13 W/m² 9,7 km/h (2 Bft) 95,65 %
28.04.2026 06:40 8,3 °C 7,8 °C 4,4 °C 76 % 1020,7 hPa 0,0 l/m² 0 min 15 W/m² 9,7 km/h (2 Bft) 93,62 %
28.04.2026 06:42 8,3 °C 7,8 °C 4,4 °C 76 % 1020,7 hPa 0,0 l/m² 0 min 17 W/m² 6,4 km/h (2 Bft) 95,74 %
28.04.2026 06:44 8,3 °C 7,8 °C 4,4 °C 76 % 1020,7 hPa 0,0 l/m² 0 min 19 W/m² 6,4 km/h (2 Bft) 93,62 %
28.04.2026 06:46 8,3 °C 7,8 °C 4,4 °C 76 % 1020,7 hPa 0,0 l/m² 0 min 20 W/m² 6,4 km/h (2 Bft) 93,62 %
28.04.2026 06:48 8,4 °C 7,8 °C 4,4 °C 76 % 1020,8 hPa 0,0 l/m² 0 min 23 W/m² 9,7 km/h (2 Bft) 95,74 %
28.04.2026 06:50 8,4 °C 7,8 °C 4,4 °C 76 % 1020,7 hPa 0,0 l/m² 0 min 25 W/m² 6,4 km/h (2 Bft) 95,74 %
28.04.2026 06:52 8,4 °C 7,8 °C 4,4 °C 76 % 1020,7 hPa 0,0 l/m² 0 min 26 W/m² 9,7 km/h (2 Bft) 95,65 %
28.04.2026 06:54 8,4 °C 7,8 °C 4,4 °C 76 % 1020,7 hPa 0,0 l/m² 0 min 28 W/m² 6,4 km/h (2 Bft) 97,87 %
28.04.2026 06:56 8,4 °C 7,8 °C 4,4 °C 76 % 1020,7 hPa 0,0 l/m² 0 min 29 W/m² 6,4 km/h (2 Bft) 100,00 %
28.04.2026 06:58 8,4 °C 7,8 °C 4,4 °C 76 % 1020,7 hPa 0,0 l/m² 0 min 31 W/m² 22,5 km/h (4 Bft) 95,74 %
28.04.2026 07:00 8,4 °C 7,8 °C 4,4 °C 76 % 1020,8 hPa 0,0 l/m² 0 min 33 W/m² 12,9 km/h (3 Bft) 97,87 %
28.04.2026 07:02 8,4 °C 7,8 °C 4,4 °C 76 % 1020,7 hPa 0,0 l/m² 0 min 35 W/m² 9,7 km/h (2 Bft) 96,00 %
28.04.2026 07:04 8,5 °C 7,8 °C 4,4 °C 76 % 1020,7 hPa 0,0 l/m² 0 min 37 W/m² 12,9 km/h (3 Bft) 97,14 %
28.04.2026 07:06 8,5 °C 7,8 °C 4,4 °C 76 % 1020,7 hPa 0,0 l/m² 0 min 40 W/m² 9,7 km/h (2 Bft) 98,31 %
28.04.2026 07:08 8,5 °C 8,3 °C 4,4 °C 76 % 1020,7 hPa 0,0 l/m² 0 min 42 W/m² 12,9 km/h (3 Bft) 97,14 %
28.04.2026 07:10 8,5 °C 8,3 °C 4,4 °C 76 % 1020,7 hPa 0,0 l/m² 0 min 43 W/m² 12,9 km/h (3 Bft) 98,25 %
28.04.2026 07:12 8,6 °C 8,3 °C 4,4 °C 76 % 1020,7 hPa 0,0 l/m² 0 min 45 W/m² 6,4 km/h (2 Bft) 92,11 %
28.04.2026 07:14 8,6 °C 8,3 °C 4,4 °C 76 % 1020,7 hPa 0,0 l/m² 0 min 46 W/m² 6,4 km/h (2 Bft) 98,00 %
28.04.2026 07:16 8,6 °C 8,3 °C 4,4 °C 76 % 1020,7 hPa 0,0 l/m² 0 min 46 W/m² 16,1 km/h (3 Bft) 96,00 %
28.04.2026 07:18 8,6 °C 8,3 °C 4,4 °C 75 % 1020,7 hPa 0,0 l/m² 0 min 47 W/m² 16,1 km/h (3 Bft) 98,00 %
28.04.2026 07:20 8,6 °C 8,3 °C 4,4 °C 76 % 1020,7 hPa 0,0 l/m² 0 min 47 W/m² 9,7 km/h (2 Bft) 95,74 %
28.04.2026 07:22 8,6 °C 8,3 °C 4,4 °C 76 % 1020,7 hPa 0,0 l/m² 0 min 49 W/m² 6,4 km/h (2 Bft) 97,87 %
28.04.2026 07:24 8,6 °C 8,3 °C 5,0 °C 76 % 1020,8 hPa 0,0 l/m² 0 min 51 W/m² 6,4 km/h (2 Bft) 97,83 %
28.04.2026 07:26 8,7 °C 8,3 °C 5,0 °C 76 % 1020,7 hPa 0,0 l/m² 0 min 53 W/m² 6,4 km/h (2 Bft) 97,22 %
28.04.2026 07:28 8,7 °C 8,3 °C 5,0 °C 76 % 1020,8 hPa 0,0 l/m² 0 min 55 W/m² 6,4 km/h (2 Bft) 94,23 %
28.04.2026 07:30 8,7 °C 8,3 °C 5,0 °C 76 % 1020,8 hPa 0,0 l/m² 0 min 59 W/m² 6,4 km/h (2 Bft) 97,87 %
28.04.2026 07:32 8,7 °C 8,3 °C 5,0 °C 76 % 1020,8 hPa 0,0 l/m² 0 min 62 W/m² 9,7 km/h (2 Bft) 97,87 %
28.04.2026 07:34 8,7 °C 8,3 °C 5,0 °C 76 % 1020,8 hPa 0,0 l/m² 0 min 65 W/m² 6,4 km/h (2 Bft) 95,74 %
28.04.2026 07:36 8,7 °C 8,9 °C 5,0 °C 76 % 1020,8 hPa 0,0 l/m² 0 min 69 W/m² 6,4 km/h (2 Bft) 97,87 %
28.04.2026 07:38 8,8 °C 8,9 °C 5,0 °C 76 % 1020,8 hPa 0,0 l/m² 0 min 71 W/m² 9,7 km/h (2 Bft) 98,00 %
28.04.2026 07:40 8,8 °C 8,9 °C 5,0 °C 76 % 1020,9 hPa 0,0 l/m² 0 min 74 W/m² 6,4 km/h (2 Bft) 100,00 %
28.04.2026 07:42 8,8 °C 8,9 °C 5,0 °C 76 % 1020,9 hPa 0,0 l/m² 0 min 76 W/m² 6,4 km/h (2 Bft) 100,00 %
28.04.2026 07:44 8,8 °C 8,9 °C 5,0 °C 76 % 1020,9 hPa 0,0 l/m² 0 min 77 W/m² 9,7 km/h (2 Bft) 100,00 %
28.04.2026 07:46 8,9 °C 8,9 °C 5,0 °C 76 % 1020,9 hPa 0,0 l/m² 0 min 78 W/m² 9,7 km/h (2 Bft) 100,00 %
28.04.2026 07:48 8,9 °C 9,4 °C 5,0 °C 76 % 1020,9 hPa 0,0 l/m² 0 min 80 W/m² 6,4 km/h (2 Bft) 97,87 %
28.04.2026 07:50 9,0 °C 9,4 °C 5,6 °C 76 % 1020,9 hPa 0,0 l/m² 0 min 82 W/m² 6,4 km/h (2 Bft) 97,87 %
28.04.2026 07:52 9,1 °C 9,4 °C 5,6 °C 76 % 1020,9 hPa 0,0 l/m² 0 min 83 W/m² 9,7 km/h (2 Bft) 100,00 %
28.04.2026 07:54 9,1 °C 9,4 °C 5,6 °C 76 % 1021,0 hPa 0,0 l/m² 0 min 84 W/m² 6,4 km/h (2 Bft) 100,00 %
28.04.2026 07:56 9,1 °C 9,4 °C 5,6 °C 76 % 1021,0 hPa 0,0 l/m² 0 min 84 W/m² 9,7 km/h (2 Bft) 100,00 %
28.04.2026 07:58 9,2 °C 9,4 °C 5,6 °C 75 % 1021,0 hPa 0,0 l/m² 0 min 87 W/m² 6,4 km/h (2 Bft) 98,28 %
28.04.2026 08:00 9,2 °C 9,4 °C 5,6 °C 75 % 1021,1 hPa 0,0 l/m² 0 min 90 W/m² 6,4 km/h (2 Bft) 100,00 %
28.04.2026 08:02 9,2 °C 9,4 °C 5,6 °C 75 % 1021,1 hPa 0,0 l/m² 0 min 92 W/m² 12,9 km/h (3 Bft) 100,00 %
28.04.2026 08:04 9,3 °C 9,4 °C 5,6 °C 75 % 1021,1 hPa 0,0 l/m² 0 min 95 W/m² 12,9 km/h (3 Bft) 100,00 %
28.04.2026 08:06 9,3 °C 10,0 °C 5,6 °C 75 % 1021,1 hPa 0,0 l/m² 0 min 98 W/m² 6,4 km/h (2 Bft) 100,00 %
28.04.2026 08:08 9,4 °C 10,0 °C 6,1 °C 75 % 1021,1 hPa 0,0 l/m² 0 min 102 W/m² 6,4 km/h (2 Bft) 100,00 %
28.04.2026 08:10 9,4 °C 10,0 °C 6,1 °C 75 % 1021,1 hPa 0,0 l/m² 0 min 105 W/m² 6,4 km/h (2 Bft) 97,87 %
28.04.2026 08:12 9,6 °C 10,0 °C 6,1 °C 75 % 1021,1 hPa 0,0 l/m² 0 min 110 W/m² 3,2 km/h (1 Bft) 97,87 %
28.04.2026 08:14 9,6 °C 10,6 °C 6,1 °C 75 % 1021,1 hPa 0,0 l/m² 0 min 114 W/m² 6,4 km/h (2 Bft) 95,92 %
28.04.2026 08:16 9,7 °C 10,6 °C 6,1 °C 75 % 1021,1 hPa 0,0 l/m² 0 min 118 W/m² 6,4 km/h (2 Bft) 97,87 %
28.04.2026 08:18 9,7 °C 10,6 °C 6,1 °C 75 % 1021,2 hPa 0,0 l/m² 0 min 122 W/m² 6,4 km/h (2 Bft) 94,29 %
28.04.2026 08:20 9,8 °C 10,6 °C 6,1 °C 74 % 1021,1 hPa 0,0 l/m² 0 min 127 W/m² 9,7 km/h (2 Bft) 98,00 %
28.04.2026 08:22 9,8 °C 10,6 °C 6,7 °C 74 % 1021,1 hPa 0,0 l/m² 0 min 131 W/m² 9,7 km/h (2 Bft) 97,87 %
28.04.2026 08:24 9,9 °C 10,6 °C 6,7 °C 74 % 1021,1 hPa 0,0 l/m² 0 min 130 W/m² 3,2 km/h (1 Bft) 98,25 %
28.04.2026 08:26 9,9 °C 11,1 °C 6,7 °C 74 % 1021,1 hPa 0,0 l/m² 0 min 130 W/m² 6,4 km/h (2 Bft) 97,87 %
28.04.2026 08:28 10,0 °C 11,1 °C 6,7 °C 74 % 1021,1 hPa 0,0 l/m² 0 min 133 W/m² 6,4 km/h (2 Bft) 97,37 %
28.04.2026 08:30 10,1 °C 11,1 °C 6,7 °C 74 % 1021,1 hPa 0,0 l/m² 0 min 130 W/m² 12,9 km/h (3 Bft) 97,83 %
28.04.2026 08:32 10,2 °C 11,1 °C 6,7 °C 73 % 1021,1 hPa 0,0 l/m² 0 min 129 W/m² 9,7 km/h (2 Bft) 98,00 %
28.04.2026 08:34 10,2 °C 11,1 °C 6,7 °C 73 % 1021,1 hPa 0,0 l/m² 0 min 130 W/m² 12,9 km/h (3 Bft) 97,87 %
28.04.2026 08:36 10,3 °C 11,1 °C 6,7 °C 73 % 1021,1 hPa 0,0 l/m² 0 min 136 W/m² 6,4 km/h (2 Bft) 97,73 %
28.04.2026 08:38 10,3 °C 11,7 °C 6,7 °C 73 % 1021,1 hPa 0,0 l/m² 0 min 148 W/m² 9,7 km/h (2 Bft) 98,21 %
28.04.2026 08:40 10,4 °C 11,7 °C 6,7 °C 73 % 1021,1 hPa 0,0 l/m² 0 min 178 W/m² 9,7 km/h (2 Bft) 95,74 %
28.04.2026 08:42 10,4 °C 11,7 °C 7,2 °C 73 % 1021,1 hPa 0,0 l/m² 2 min 197 W/m² 6,4 km/h (2 Bft) 97,87 %
28.04.2026 08:44 10,6 °C 12,2 °C 7,2 °C 73 % 1021,1 hPa 0,0 l/m² 2 min 198 W/m² 9,7 km/h (2 Bft) 100,00 %
28.04.2026 08:46 10,6 °C 12,2 °C 7,2 °C 72 % 1021,2 hPa 0,0 l/m² 2 min 213 W/m² 12,9 km/h (3 Bft) 100,00 %
28.04.2026 08:48 10,7 °C 12,2 °C 7,2 °C 72 % 1021,2 hPa 0,0 l/m² 0 min 184 W/m² 6,4 km/h (2 Bft) 100,00 %
28.04.2026 08:50 10,8 °C 12,2 °C 7,2 °C 72 % 1021,2 hPa 0,0 l/m² 0 min 172 W/m² 12,9 km/h (3 Bft) 100,00 %
28.04.2026 08:52 10,8 °C 12,8 °C 7,2 °C 71 % 1021,2 hPa 0,0 l/m² 0 min 174 W/m² 6,4 km/h (2 Bft) 100,00 %
28.04.2026 08:54 10,8 °C 12,8 °C 7,2 °C 72 % 1021,2 hPa 0,0 l/m² 0 min 178 W/m² 9,7 km/h (2 Bft) 100,00 %
28.04.2026 08:56 10,9 °C 12,8 °C 7,2 °C 71 % 1021,2 hPa 0,0 l/m² 0 min 182 W/m² 6,4 km/h (2 Bft) 100,00 %
28.04.2026 08:58 11,0 °C 12,8 °C 7,2 °C 71 % 1021,2 hPa 0,0 l/m² 0 min 195 W/m² 9,7 km/h (2 Bft) 100,00 %
28.04.2026 09:00 11,1 °C 13,3 °C 7,8 °C 71 % 1021,2 hPa 0,0 l/m² 0 min 198 W/m² 6,4 km/h (2 Bft) 93,62 %
28.04.2026 09:02 11,1 °C 13,3 °C 7,8 °C 71 % 1021,1 hPa 0,0 l/m² 2 min 212 W/m² 6,4 km/h (2 Bft) 95,65 %
28.04.2026 09:04 11,2 °C 13,9 °C 7,8 °C 71 % 1021,2 hPa 0,0 l/m² 2 min 213 W/m² 6,4 km/h (2 Bft) 97,87 %
28.04.2026 09:06 11,3 °C 13,9 °C 7,8 °C 71 % 1021,1 hPa 0,0 l/m² 2 min 216 W/m² 6,4 km/h (2 Bft) 97,87 %
28.04.2026 09:08 11,3 °C 13,9 °C 8,3 °C 70 % 1021,1 hPa 0,0 l/m² 0 min 212 W/m² 9,7 km/h (2 Bft) 95,74 %
28.04.2026 09:10 11,4 °C 13,9 °C 8,3 °C 70 % 1021,0 hPa 0,0 l/m² 0 min 213 W/m² 9,7 km/h (2 Bft) 97,87 %
28.04.2026 09:12 11,5 °C 13,9 °C 8,3 °C 70 % 1021,0 hPa 0,0 l/m² 0 min 214 W/m² 9,7 km/h (2 Bft) 98,00 %
28.04.2026 09:14 11,6 °C 13,9 °C 8,3 °C 70 % 1021,0 hPa 0,0 l/m² 0 min 214 W/m² 6,4 km/h (2 Bft) 97,87 %
28.04.2026 09:16 11,7 °C 13,9 °C 8,3 °C 70 % 1021,0 hPa 0,0 l/m² 0 min 210 W/m² 6,4 km/h (2 Bft) 98,00 %
28.04.2026 09:18 11,7 °C 14,4 °C 8,3 °C 70 % 1021,0 hPa 0,0 l/m² 0 min 213 W/m² 6,4 km/h (2 Bft) 97,83 %
28.04.2026 09:20 11,8 °C 13,9 °C 8,3 °C 70 % 1021,1 hPa 0,0 l/m² 0 min 213 W/m² 6,4 km/h (2 Bft) 97,37 %
28.04.2026 09:22 11,8 °C 13,9 °C 8,9 °C 69 % 1021,0 hPa 0,0 l/m² 0 min 209 W/m² 9,7 km/h (2 Bft) 98,00 %
28.04.2026 09:24 11,9 °C 13,9 °C 8,3 °C 69 % 1021,1 hPa 0,0 l/m² 0 min 208 W/m² 12,9 km/h (3 Bft) 97,87 %
28.04.2026 09:26 11,9 °C 13,9 °C 8,9 °C 69 % 1021,1 hPa 0,0 l/m² 0 min 226 W/m² 6,4 km/h (2 Bft) 95,74 %
28.04.2026 09:28 12,0 °C 13,9 °C 8,9 °C 68 % 1021,1 hPa 0,0 l/m² 2 min 241 W/m² 9,7 km/h (2 Bft) 97,87 %
28.04.2026 09:30 12,1 °C 13,9 °C 8,9 °C 68 % 1021,1 hPa 0,0 l/m² 2 min 268 W/m² 6,4 km/h (2 Bft) 97,87 %
28.04.2026 09:32 12,1 °C 14,4 °C 9,4 °C 68 % 1021,2 hPa 0,0 l/m² 2 min 311 W/m² 6,4 km/h (2 Bft) 97,87 %
28.04.2026 09:34 12,3 °C 15,6 °C 9,4 °C 68 % 1021,2 hPa 0,0 l/m² 2 min 374 W/m² 6,4 km/h (2 Bft) 97,83 %
28.04.2026 09:36 12,4 °C 16,7 °C 10,0 °C 68 % 1021,1 hPa 0,0 l/m² 2 min 412 W/m² 12,9 km/h (3 Bft) 95,45 %
28.04.2026 09:38 12,6 °C 16,7 °C 10,6 °C 67 % 1021,1 hPa 0,0 l/m² 2 min 433 W/m² 16,1 km/h (3 Bft) 97,87 %
28.04.2026 09:40 12,7 °C 17,2 °C 10,6 °C 66 % 1021,2 hPa 0,0 l/m² 2 min 460 W/m² 9,7 km/h (2 Bft) 97,87 %
28.04.2026 09:42 12,9 °C 18,3 °C 11,1 °C 66 % 1021,3 hPa 0,0 l/m² 2 min 491 W/m² 12,9 km/h (3 Bft) 93,62 %
28.04.2026 09:44 13,1 °C 18,9 °C 11,1 °C 66 % 1021,2 hPa 0,0 l/m² 2 min 514 W/m² 9,7 km/h (2 Bft) 95,74 %
28.04.2026 09:46 13,3 °C 18,9 °C 11,1 °C 65 % 1021,3 hPa 0,0 l/m² 2 min 519 W/m² 16,1 km/h (3 Bft) 100,00 %
28.04.2026 09:48 13,5 °C 19,4 °C 11,1 °C 65 % 1021,3 hPa 0,0 l/m² 2 min 534 W/m² 16,1 km/h (3 Bft) 97,87 %
28.04.2026 09:50 13,6 °C 18,9 °C 10,6 °C 63 % 1021,3 hPa 0,0 l/m² 2 min 560 W/m² 16,1 km/h (3 Bft) 100,00 %
28.04.2026 09:52 13,8 °C 19,4 °C 10,6 °C 64 % 1021,3 hPa 0,0 l/m² 2 min 575 W/m² 9,7 km/h (2 Bft) 100,00 %
28.04.2026 09:54 14,0 °C 19,4 °C 10,6 °C 63 % 1021,3 hPa 0,0 l/m² 2 min 584 W/m² 16,1 km/h (3 Bft) 95,92 %
28.04.2026 09:56 14,2 °C 20,0 °C 10,6 °C 62 % 1021,3 hPa 0,0 l/m² 2 min 596 W/m² 6,4 km/h (2 Bft) 97,87 %
28.04.2026 09:58 14,3 °C 20,0 °C 10,6 °C 62 % 1021,3 hPa 0,0 l/m² 2 min 598 W/m² 16,1 km/h (3 Bft) 95,74 %
28.04.2026 10:00 14,3 °C 20,0 °C 10,6 °C 61 % 1021,3 hPa 0,0 l/m² 2 min 536 W/m² 16,1 km/h (3 Bft) 100,00 %
28.04.2026 10:02 14,4 °C 20,0 °C 10,6 °C 60 % 1021,4 hPa 0,0 l/m² 2 min 475 W/m² 6,4 km/h (2 Bft) 100,00 %
28.04.2026 10:04 14,6 °C 19,4 °C 10,6 °C 61 % 1021,4 hPa 0,0 l/m² 2 min 476 W/m² 9,7 km/h (2 Bft) 96,00 %
28.04.2026 10:06 14,6 °C 18,9 °C 10,6 °C 61 % 1021,4 hPa 0,0 l/m² 2 min 358 W/m² 12,9 km/h (3 Bft) 97,83 %
28.04.2026 10:08 14,5 °C 17,8 °C 10,0 °C 60 % 1021,5 hPa 0,0 l/m² 0 min 279 W/m² 19,3 km/h (3 Bft) 100,00 %
28.04.2026 10:10 14,4 °C 18,9 °C 10,0 °C 60 % 1021,4 hPa 0,0 l/m² 2 min 472 W/m² 6,4 km/h (2 Bft) 100,00 %
28.04.2026 10:12 14,4 °C 19,4 °C 10,0 °C 61 % 1021,4 hPa 0,0 l/m² 2 min 608 W/m² 25,7 km/h (4 Bft) 98,00 %
28.04.2026 10:14 14,4 °C 19,4 °C 10,6 °C 61 % 1021,5 hPa 0,0 l/m² 2 min 580 W/m² 9,7 km/h (2 Bft) 97,87 %
28.04.2026 10:16 14,5 °C 19,4 °C 10,6 °C 61 % 1021,5 hPa 0,0 l/m² 2 min 561 W/m² 19,3 km/h (3 Bft) 97,87 %
28.04.2026 10:18 14,6 °C 18,3 °C 10,6 °C 60 % 1021,5 hPa 0,0 l/m² 2 min 578 W/m² 16,1 km/h (3 Bft) 97,87 %
28.04.2026 10:20 14,6 °C 18,3 °C 10,6 °C 61 % 1021,5 hPa 0,0 l/m² 2 min 597 W/m² 12,9 km/h (3 Bft) 97,83 %
28.04.2026 10:22 14,7 °C 18,3 °C 11,1 °C 61 % 1021,5 hPa 0,0 l/m² 2 min 601 W/m² 19,3 km/h (3 Bft) 95,74 %
28.04.2026 10:24 14,8 °C 18,3 °C 11,7 °C 61 % 1021,6 hPa 0,0 l/m² 2 min 564 W/m² 12,9 km/h (3 Bft) 95,74 %
28.04.2026 10:26 14,9 °C 18,9 °C 12,2 °C 61 % 1021,5 hPa 0,0 l/m² 2 min 579 W/m² 9,7 km/h (2 Bft) 95,12 %
28.04.2026 10:28 15,1 °C 18,9 °C 12,8 °C 61 % 1021,6 hPa 0,0 l/m² 2 min 581 W/m² 22,5 km/h (4 Bft) 96,00 %
28.04.2026 10:30 15,2 °C 18,3 °C 13,3 °C 59 % 1021,6 hPa 0,0 l/m² 2 min 593 W/m² 19,3 km/h (3 Bft) 95,74 %
28.04.2026 10:32 15,2 °C 18,3 °C 13,3 °C 59 % 1021,6 hPa 0,0 l/m² 2 min 615 W/m² 16,1 km/h (3 Bft) 92,00 %
28.04.2026 10:34 15,2 °C 17,8 °C 13,9 °C 59 % 1021,6 hPa 0,0 l/m² 2 min 617 W/m² 12,9 km/h (3 Bft) 95,74 %
28.04.2026 10:36 15,3 °C 18,9 °C 13,3 °C 59 % 1021,7 hPa 0,0 l/m² 2 min 645 W/m² 12,9 km/h (3 Bft) 91,49 %
28.04.2026 10:38 15,4 °C 19,4 °C 13,3 °C 59 % 1021,6 hPa 0,0 l/m² 2 min 665 W/m² 9,7 km/h (2 Bft) 95,65 %
28.04.2026 10:40 15,5 °C 20,0 °C 12,8 °C 59 % 1021,7 hPa 0,0 l/m² 2 min 669 W/m² 19,3 km/h (3 Bft) 94,44 %
28.04.2026 10:42 15,6 °C 20,6 °C 12,8 °C 59 % 1021,6 hPa 0,0 l/m² 2 min 677 W/m² 9,7 km/h (2 Bft) 96,15 %
28.04.2026 10:44 15,7 °C 20,0 °C 12,2 °C 59 % 1021,6 hPa 0,0 l/m² 2 min 694 W/m² 12,9 km/h (3 Bft) 95,45 %
28.04.2026 10:46 15,8 °C 20,6 °C 12,8 °C 58 % 1021,6 hPa 0,0 l/m² 2 min 699 W/m² 16,1 km/h (3 Bft) 95,74 %
28.04.2026 10:48 15,9 °C 20,0 °C 12,8 °C 57 % 1021,6 hPa 0,0 l/m² 2 min 700 W/m² 12,9 km/h (3 Bft) 96,00 %
28.04.2026 10:50 16,1 °C 20,0 °C 12,8 °C 57 % 1021,5 hPa 0,0 l/m² 2 min 704 W/m² 9,7 km/h (2 Bft) 94,00 %
28.04.2026 10:52 16,2 °C 20,0 °C 12,8 °C 57 % 1021,5 hPa 0,0 l/m² 2 min 701 W/m² 9,7 km/h (2 Bft) 93,62 %
28.04.2026 10:54 16,3 °C 20,6 °C 12,2 °C 57 % 1021,6 hPa 0,0 l/m² 2 min 695 W/m² 12,9 km/h (3 Bft) 97,73 %
28.04.2026 10:56 16,4 °C 22,2 °C 12,2 °C 57 % 1021,6 hPa 0,0 l/m² 2 min 680 W/m² 9,7 km/h (2 Bft) 97,96 %
28.04.2026 10:58 16,5 °C 22,8 °C 12,2 °C 56 % 1021,6 hPa 0,0 l/m² 2 min 689 W/m² 9,7 km/h (2 Bft) 97,87 %
28.04.2026 11:00 16,6 °C 23,3 °C 12,2 °C 56 % 1021,7 hPa 0,0 l/m² 2 min 702 W/m² 12,9 km/h (3 Bft) 97,87 %
28.04.2026 11:02 16,6 °C 23,9 °C 11,7 °C 55 % 1021,6 hPa 0,0 l/m² 2 min 710 W/m² 16,1 km/h (3 Bft) 96,00 %
28.04.2026 11:04 16,7 °C 23,3 °C 12,2 °C 56 % 1021,7 hPa 0,0 l/m² 2 min 725 W/m² 9,7 km/h (2 Bft) 97,87 %
28.04.2026 11:06 16,8 °C 23,3 °C 12,2 °C 55 % 1021,7 hPa 0,0 l/m² 2 min 732 W/m² 9,7 km/h (2 Bft) 97,87 %
28.04.2026 11:08 16,8 °C 22,8 °C 12,2 °C 55 % 1021,6 hPa 0,0 l/m² 2 min 736 W/m² 12,9 km/h (3 Bft) 95,12 %
28.04.2026 11:10 16,9 °C 21,7 °C 12,2 °C 55 % 1021,7 hPa 0,0 l/m² 2 min 728 W/m² 12,9 km/h (3 Bft) 97,87 %
28.04.2026 11:12 17,0 °C 22,2 °C 12,2 °C 55 % 1021,6 hPa 0,0 l/m² 2 min 713 W/m² 12,9 km/h (3 Bft) 97,56 %
28.04.2026 11:14 17,1 °C 22,8 °C 12,2 °C 54 % 1021,7 hPa 0,0 l/m² 2 min 707 W/m² 12,9 km/h (3 Bft) 98,08 %
28.04.2026 11:16 17,1 °C 23,9 °C 12,2 °C 55 % 1021,6 hPa 0,0 l/m² 2 min 711 W/m² 12,9 km/h (3 Bft) 95,74 %
28.04.2026 11:18 17,2 °C 23,3 °C 12,2 °C 54 % 1021,7 hPa 0,0 l/m² 2 min 723 W/m² 22,5 km/h (4 Bft) 97,87 %
28.04.2026 11:20 17,2 °C 23,3 °C 12,8 °C 54 % 1021,6 hPa 0,0 l/m² 2 min 736 W/m² 12,9 km/h (3 Bft) 98,00 %
28.04.2026 11:22 17,3 °C 23,3 °C 12,8 °C 54 % 1021,6 hPa 0,0 l/m² 2 min 742 W/m² 19,3 km/h (3 Bft) 97,62 %
28.04.2026 11:24 17,3 °C 23,9 °C 12,8 °C 54 % 1021,6 hPa 0,0 l/m² 2 min 747 W/m² 16,1 km/h (3 Bft) 95,74 %
28.04.2026 11:26 17,4 °C 23,3 °C 13,3 °C 54 % 1021,6 hPa 0,0 l/m² 2 min 750 W/m² 12,9 km/h (3 Bft) 98,00 %
28.04.2026 11:28 17,5 °C 22,2 °C 13,9 °C 54 % 1021,6 hPa 0,0 l/m² 2 min 749 W/m² 22,5 km/h (4 Bft) 94,29 %
28.04.2026 11:30 17,5 °C 21,7 °C 13,9 °C 53 % 1021,6 hPa 0,0 l/m² 2 min 764 W/m² 25,7 km/h (4 Bft) 96,36 %
28.04.2026 11:32 17,6 °C 21,1 °C 13,9 °C 53 % 1021,6 hPa 0,0 l/m² 2 min 778 W/m² 16,1 km/h (3 Bft) 96,23 %
28.04.2026 11:34 17,6 °C 22,2 °C 13,9 °C 53 % 1021,6 hPa 0,0 l/m² 2 min 773 W/m² 19,3 km/h (3 Bft) 92,11 %
28.04.2026 11:36 17,7 °C 22,8 °C 13,9 °C 53 % 1021,6 hPa 0,0 l/m² 2 min 742 W/m² 12,9 km/h (3 Bft) 96,00 %
28.04.2026 11:38 17,7 °C 22,2 °C 13,3 °C 53 % 1021,6 hPa 0,0 l/m² 2 min 687 W/m² 19,3 km/h (3 Bft) 94,00 %
28.04.2026 11:40 17,7 °C 21,1 °C 13,3 °C 53 % 1021,6 hPa 0,0 l/m² 2 min 569 W/m² 19,3 km/h (3 Bft) 94,00 %
28.04.2026 11:42 17,7 °C 20,6 °C 13,3 °C 53 % 1021,6 hPa 0,0 l/m² 2 min 569 W/m² 16,1 km/h (3 Bft) 97,37 %
28.04.2026 11:44 17,8 °C 20,6 °C 13,3 °C 53 % 1021,6 hPa 0,0 l/m² 2 min 594 W/m² 16,1 km/h (3 Bft) 93,62 %
28.04.2026 11:46 17,8 °C 20,0 °C 13,3 °C 51 % 1021,6 hPa 0,0 l/m² 2 min 566 W/m² 16,1 km/h (3 Bft) 95,74 %
28.04.2026 11:48 17,8 °C 20,0 °C 13,3 °C 52 % 1021,6 hPa 0,0 l/m² 2 min 523 W/m² 12,9 km/h (3 Bft) 95,92 %
28.04.2026 11:50 17,8 °C 20,0 °C 13,3 °C 52 % 1021,6 hPa 0,0 l/m² 2 min 486 W/m² 19,3 km/h (3 Bft) 95,74 %
28.04.2026 11:52 17,7 °C 20,6 °C 13,3 °C 51 % 1021,6 hPa 0,0 l/m² 2 min 496 W/m² 16,1 km/h (3 Bft) 96,23 %
28.04.2026 11:54 17,6 °C 20,6 °C 13,3 °C 52 % 1021,5 hPa 0,0 l/m² 2 min 477 W/m² 16,1 km/h (3 Bft) 95,74 %
28.04.2026 11:56 17,6 °C 21,1 °C 13,9 °C 53 % 1021,5 hPa 0,0 l/m² 2 min 449 W/m² 16,1 km/h (3 Bft) 94,74 %
28.04.2026 11:58 17,6 °C 21,7 °C 13,9 °C 53 % 1021,5 hPa 0,0 l/m² 2 min 465 W/m² 16,1 km/h (3 Bft) 95,74 %
28.04.2026 12:00 17,6 °C 21,7 °C 13,9 °C 52 % 1021,5 hPa 0,0 l/m² 2 min 506 W/m² 22,5 km/h (4 Bft) 95,74 %
28.04.2026 12:02 17,6 °C 21,1 °C 13,9 °C 52 % 1021,5 hPa 0,0 l/m² 2 min 437 W/m² 19,3 km/h (3 Bft) 94,74 %
28.04.2026 12:04 17,6 °C 21,7 °C 13,9 °C 52 % 1021,5 hPa 0,0 l/m² 2 min 402 W/m² 16,1 km/h (3 Bft) 95,08 %
28.04.2026 12:07 17,6 °C 21,7 °C 14,4 °C 52 % 1021,5 hPa 0,0 l/m² 2 min 433 W/m² 16,1 km/h (3 Bft) 95,71 %
28.04.2026 12:08 17,5 °C 22,2 °C 14,4 °C 52 % 1021,5 hPa 0,0 l/m² 1 min 496 W/m² 9,7 km/h (2 Bft) 88,46 %
28.04.2026 12:10 17,5 °C 23,3 °C 15,0 °C 53 % 1021,5 hPa 0,0 l/m² 2 min 566 W/m² 3,2 km/h (1 Bft) 93,75 %
28.04.2026 12:12 17,6 °C 23,9 °C 15,6 °C 53 % 1021,5 hPa 0,0 l/m² 2 min 602 W/m² 16,1 km/h (3 Bft) 97,87 %
28.04.2026 12:14 17,8 °C 25,6 °C 16,1 °C 54 % 1021,6 hPa 0,0 l/m² 2 min 737 W/m² 9,7 km/h (2 Bft) 97,87 %
28.04.2026 12:16 17,9 °C 26,1 °C 16,1 °C 53 % 1021,5 hPa 0,0 l/m² 2 min 830 W/m² 19,3 km/h (3 Bft) 95,74 %
28.04.2026 12:18 18,1 °C 26,7 °C 16,7 °C 53 % 1021,6 hPa 0,0 l/m² 2 min 843 W/m² 12,9 km/h (3 Bft) 92,68 %
28.04.2026 12:20 18,2 °C 26,7 °C 17,2 °C 53 % 1021,5 hPa 0,0 l/m² 2 min 862 W/m² 16,1 km/h (3 Bft) 97,96 %
28.04.2026 12:22 18,4 °C 26,7 °C 18,3 °C 52 % 1021,5 hPa 0,0 l/m² 2 min 860 W/m² 25,7 km/h (4 Bft) 93,62 %
28.04.2026 12:24 18,5 °C 27,2 °C 19,4 °C 52 % 1021,5 hPa 0,0 l/m² 2 min 863 W/m² 16,1 km/h (3 Bft) 98,00 %
28.04.2026 12:26 18,7 °C 27,2 °C 20,0 °C 51 % 1021,5 hPa 0,0 l/m² 2 min 864 W/m² 29,0 km/h (5 Bft) 94,74 %
28.04.2026 12:28 18,8 °C 26,7 °C 20,6 °C 52 % 1021,6 hPa 0,0 l/m² 2 min 860 W/m² 25,7 km/h (4 Bft) 95,74 %
28.04.2026 12:30 18,9 °C 27,2 °C 20,6 °C 51 % 1021,5 hPa 0,0 l/m² 2 min 862 W/m² 22,5 km/h (4 Bft) 95,74 %
28.04.2026 12:32 19,0 °C 27,8 °C 20,6 °C 51 % 1021,6 hPa 0,0 l/m² 2 min 861 W/m² 12,9 km/h (3 Bft) 93,62 %
28.04.2026 12:34 19,2 °C 28,9 °C 21,1 °C 51 % 1021,5 hPa 0,0 l/m² 2 min 858 W/m² 19,3 km/h (3 Bft) 95,74 %
28.04.2026 12:36 19,3 °C 29,4 °C 21,1 °C 51 % 1021,5 hPa 0,0 l/m² 2 min 844 W/m² 16,1 km/h (3 Bft) 95,74 %
28.04.2026 12:38 19,4 °C 27,8 °C 21,7 °C 50 % 1021,6 hPa 0,0 l/m² 2 min 838 W/m² 25,7 km/h (4 Bft) 95,92 %
28.04.2026 12:40 19,6 °C 28,3 °C 22,2 °C 50 % 1021,5 hPa 0,0 l/m² 2 min 840 W/m² 12,9 km/h (3 Bft) 97,87 %
28.04.2026 12:42 19,6 °C 28,3 °C 22,2 °C 51 % 1021,5 hPa 0,0 l/m² 2 min 825 W/m² 19,3 km/h (3 Bft) 98,11 %
28.04.2026 12:44 19,7 °C 28,3 °C 21,1 °C 49 % 1021,4 hPa 0,0 l/m² 2 min 804 W/m² 25,7 km/h (4 Bft) 97,87 %
28.04.2026 12:46 19,6 °C 28,3 °C 20,6 °C 48 % 1021,5 hPa 0,0 l/m² 2 min 778 W/m² 22,5 km/h (4 Bft) 97,37 %
28.04.2026 12:48 19,6 °C 28,9 °C 20,6 °C 49 % 1021,4 hPa 0,0 l/m² 2 min 745 W/m² 16,1 km/h (3 Bft) 97,87 %
28.04.2026 12:50 19,6 °C 28,3 °C 20,6 °C 49 % 1021,4 hPa 0,0 l/m² 2 min 736 W/m² 25,7 km/h (4 Bft) 98,00 %
28.04.2026 12:52 19,6 °C 28,3 °C 20,6 °C 49 % 1021,4 hPa 0,0 l/m² 2 min 665 W/m² 12,9 km/h (3 Bft) 97,56 %
28.04.2026 12:54 19,7 °C 27,2 °C 20,0 °C 48 % 1021,4 hPa 0,0 l/m² 2 min 685 W/m² 16,1 km/h (3 Bft) 98,00 %
28.04.2026 12:56 19,7 °C 27,2 °C 20,6 °C 49 % 1021,3 hPa 0,0 l/m² 2 min 694 W/m² 22,5 km/h (4 Bft) 97,96 %
28.04.2026 12:58 19,7 °C 27,2 °C 20,6 °C 48 % 1021,4 hPa 0,0 l/m² 2 min 704 W/m² 19,3 km/h (3 Bft) 98,00 %
28.04.2026 13:00 19,6 °C 26,7 °C 20,0 °C 48 % 1021,4 hPa 0,0 l/m² 2 min 640 W/m² 19,3 km/h (3 Bft) 100,00 %
28.04.2026 13:02 19,6 °C 26,7 °C 20,0 °C 49 % 1021,4 hPa 0,0 l/m² 2 min 589 W/m² 19,3 km/h (3 Bft) 98,00 %
28.04.2026 13:04 19,6 °C 27,2 °C 20,6 °C 49 % 1021,3 hPa 0,0 l/m² 2 min 789 W/m² 19,3 km/h (3 Bft) 100,00 %
28.04.2026 13:06 19,7 °C 27,8 °C 20,6 °C 49 % 1021,2 hPa 0,0 l/m² 2 min 838 W/m² 16,1 km/h (3 Bft) 100,00 %
28.04.2026 13:08 19,8 °C 27,8 °C 21,1 °C 49 % 1021,3 hPa 0,0 l/m² 2 min 823 W/m² 16,1 km/h (3 Bft) 100,00 %
28.04.2026 13:10 19,8 °C 27,2 °C 21,7 °C 49 % 1021,3 hPa 0,0 l/m² 2 min 812 W/m² 16,1 km/h (3 Bft) 100,00 %
28.04.2026 13:12 19,9 °C 27,8 °C 21,7 °C 49 % 1021,3 hPa 0,0 l/m² 2 min 775 W/m² 12,9 km/h (3 Bft) 100,00 %
28.04.2026 13:14 19,9 °C 27,2 °C 21,7 °C 48 % 1021,3 hPa 0,0 l/m² 2 min 751 W/m² 19,3 km/h (3 Bft) 100,00 %
28.04.2026 13:16 19,9 °C 26,7 °C 21,7 °C 48 % 1021,3 hPa 0,0 l/m² 2 min 767 W/m² 19,3 km/h (3 Bft) 100,00 %
28.04.2026 13:18 20,0 °C 27,8 °C 21,1 °C 48 % 1021,2 hPa 0,0 l/m² 2 min 767 W/m² 16,1 km/h (3 Bft) 100,00 %
28.04.2026 13:20 20,0 °C 28,3 °C 21,7 °C 49 % 1021,3 hPa 0,0 l/m² 2 min 805 W/m² 16,1 km/h (3 Bft) 100,00 %
28.04.2026 13:22 20,1 °C 28,9 °C 21,7 °C 49 % 1021,2 hPa 0,0 l/m² 2 min 794 W/m² 29,0 km/h (5 Bft) 100,00 %
28.04.2026 13:24 20,2 °C 29,4 °C 22,2 °C 49 % 1021,3 hPa 0,0 l/m² 2 min 808 W/m² 16,1 km/h (3 Bft) 100,00 %
28.04.2026 13:26 20,3 °C 30,0 °C 22,2 °C 48 % 1021,3 hPa 0,0 l/m² 2 min 819 W/m² 12,9 km/h (3 Bft) 100,00 %
28.04.2026 13:28 20,4 °C 29,4 °C 22,2 °C 48 % 1021,3 hPa 0,0 l/m² 2 min 782 W/m² 16,1 km/h (3 Bft) 100,00 %
28.04.2026 13:30 20,4 °C 27,8 °C 21,7 °C 47 % 1021,2 hPa 0,0 l/m² 2 min 796 W/m² 32,2 km/h (5 Bft) 100,00 %
28.04.2026 13:32 20,5 °C 29,4 °C 22,2 °C 48 % 1021,2 hPa 0,0 l/m² 2 min 859 W/m² 16,1 km/h (3 Bft) 100,00 %
28.04.2026 13:34 20,6 °C 31,1 °C 22,8 °C 48 % 1021,2 hPa 0,0 l/m² 2 min 861 W/m² 16,1 km/h (3 Bft) 100,00 %
28.04.2026 13:36 20,8 °C 31,7 °C 22,8 °C 49 % 1021,2 hPa 0,0 l/m² 2 min 860 W/m² 12,9 km/h (3 Bft) 100,00 %
28.04.2026 13:38 20,9 °C 32,2 °C 22,8 °C 48 % 1021,2 hPa 0,0 l/m² 2 min 865 W/m² 16,1 km/h (3 Bft) 98,00 %
28.04.2026 13:40 21,1 °C 31,7 °C 22,8 °C 48 % 1021,2 hPa 0,0 l/m² 2 min 861 W/m² 22,5 km/h (4 Bft) 100,00 %
28.04.2026 13:42 21,1 °C 31,1 °C 22,2 °C 48 % 1021,3 hPa 0,0 l/m² 2 min 858 W/m² 12,9 km/h (3 Bft) 100,00 %
28.04.2026 13:44 21,2 °C 31,1 °C 21,1 °C 47 % 1021,3 hPa 0,0 l/m² 2 min 839 W/m² 19,3 km/h (3 Bft) 97,87 %
28.04.2026 13:46 21,2 °C 31,1 °C 20,6 °C 47 % 1021,3 hPa 0,0 l/m² 2 min 829 W/m² 16,1 km/h (3 Bft) 100,00 %
28.04.2026 13:48 21,2 °C 30,6 °C 19,4 °C 47 % 1021,2 hPa 0,0 l/m² 2 min 801 W/m² 19,3 km/h (3 Bft) 100,00 %
28.04.2026 13:50 21,2 °C 30,0 °C 18,9 °C 47 % 1021,3 hPa 0,0 l/m² 2 min 763 W/m² 19,3 km/h (3 Bft) 100,00 %
28.04.2026 13:52 21,1 °C 30,6 °C 18,3 °C 46 % 1021,2 hPa 0,0 l/m² 2 min 779 W/m² 22,5 km/h (4 Bft) 100,00 %
28.04.2026 13:54 21,1 °C 30,0 °C 17,8 °C 47 % 1021,3 hPa 0,0 l/m² 2 min 787 W/m² 19,3 km/h (3 Bft) 100,00 %
28.04.2026 13:56 21,1 °C 30,6 °C 17,8 °C 45 % 1021,2 hPa 0,0 l/m² 2 min 791 W/m² 19,3 km/h (3 Bft) 97,87 %
28.04.2026 13:58 21,1 °C 30,0 °C 17,2 °C 47 % 1021,2 hPa 0,0 l/m² 2 min 802 W/m² 19,3 km/h (3 Bft) 100,00 %
28.04.2026 14:00 21,2 °C 30,0 °C 17,2 °C 46 % 1021,3 hPa 0,0 l/m² 2 min 802 W/m² 9,7 km/h (2 Bft) 100,00 %
28.04.2026 14:02 21,2 °C 30,0 °C 17,2 °C 46 % 1021,2 hPa 0,0 l/m² 2 min 814 W/m² 32,2 km/h (5 Bft) 98,11 %
28.04.2026 14:04 21,3 °C 30,6 °C 17,2 °C 46 % 1021,2 hPa 0,0 l/m² 2 min 825 W/m² 25,7 km/h (4 Bft) 97,87 %
28.04.2026 14:06 21,4 °C 30,6 °C 17,2 °C 46 % 1021,2 hPa 0,0 l/m² 2 min 833 W/m² 16,1 km/h (3 Bft) 97,87 %
28.04.2026 14:08 21,4 °C 31,7 °C 17,8 °C 46 % 1021,2 hPa 0,0 l/m² 2 min 838 W/m² 12,9 km/h (3 Bft) 97,87 %
28.04.2026 14:10 21,5 °C 31,7 °C 17,8 °C 46 % 1021,1 hPa 0,0 l/m² 2 min 845 W/m² 22,5 km/h (4 Bft) 97,87 %
28.04.2026 14:12 21,6 °C 31,7 °C 17,8 °C 46 % 1021,1 hPa 0,0 l/m² 2 min 845 W/m² 16,1 km/h (3 Bft) 98,00 %
28.04.2026 14:14 21,7 °C 31,7 °C 17,8 °C 46 % 1021,0 hPa 0,0 l/m² 2 min 849 W/m² 12,9 km/h (3 Bft) 97,83 %
28.04.2026 14:16 21,8 °C 30,6 °C 17,8 °C 45 % 1021,1 hPa 0,0 l/m² 2 min 841 W/m² 16,1 km/h (3 Bft) 97,37 %
28.04.2026 14:18 21,7 °C 30,6 °C 17,2 °C 46 % 1021,1 hPa 0,0 l/m² 2 min 841 W/m² 19,3 km/h (3 Bft) 97,87 %
28.04.2026 14:20 21,8 °C 31,1 °C 17,8 °C 46 % 1021,1 hPa 0,0 l/m² 2 min 839 W/m² 16,1 km/h (3 Bft) 93,62 %
28.04.2026 14:22 21,8 °C 32,2 °C 17,8 °C 45 % 1021,1 hPa 0,0 l/m² 2 min 834 W/m² 16,1 km/h (3 Bft) 96,00 %
28.04.2026 14:24 21,9 °C 31,7 °C 17,8 °C 44 % 1021,2 hPa 0,0 l/m² 2 min 833 W/m² 16,1 km/h (3 Bft) 97,37 %
28.04.2026 14:26 22,1 °C 32,2 °C 17,8 °C 44 % 1021,1 hPa 0,0 l/m² 2 min 834 W/m² 12,9 km/h (3 Bft) 96,43 %
28.04.2026 14:28 22,2 °C 32,2 °C 18,3 °C 44 % 1021,1 hPa 0,0 l/m² 2 min 829 W/m² 22,5 km/h (4 Bft) 96,00 %
28.04.2026 14:30 22,3 °C 31,7 °C 17,8 °C 44 % 1021,1 hPa 0,0 l/m² 2 min 829 W/m² 22,5 km/h (4 Bft) 94,29 %
28.04.2026 14:32 22,3 °C 30,6 °C 17,8 °C 43 % 1021,0 hPa 0,0 l/m² 2 min 827 W/m² 16,1 km/h (3 Bft) 96,23 %
28.04.2026 14:34 22,3 °C 30,0 °C 17,8 °C 43 % 1021,1 hPa 0,0 l/m² 2 min 825 W/m² 19,3 km/h (3 Bft) 95,65 %
28.04.2026 14:36 22,2 °C 29,4 °C 17,2 °C 43 % 1021,0 hPa 0,0 l/m² 2 min 821 W/m² 19,3 km/h (3 Bft) 95,74 %
28.04.2026 14:38 22,2 °C 31,1 °C 17,8 °C 45 % 1021,0 hPa 0,0 l/m² 2 min 820 W/m² 9,7 km/h (2 Bft) 91,49 %
28.04.2026 14:40 22,3 °C 30,6 °C 17,8 °C 44 % 1021,0 hPa 0,0 l/m² 2 min 819 W/m² 19,3 km/h (3 Bft) 93,62 %
28.04.2026 14:42 22,3 °C 31,7 °C 17,8 °C 44 % 1021,0 hPa 0,0 l/m² 2 min 819 W/m² 9,7 km/h (2 Bft) 95,74 %
28.04.2026 14:44 22,4 °C 31,1 °C 17,8 °C 43 % 1021,0 hPa 0,0 l/m² 2 min 815 W/m² 12,9 km/h (3 Bft) 96,23 %
28.04.2026 14:46 22,5 °C 30,6 °C 18,3 °C 44 % 1021,1 hPa 0,0 l/m² 2 min 812 W/m² 22,5 km/h (4 Bft) 95,74 %
28.04.2026 14:48 22,4 °C 30,6 °C 18,3 °C 44 % 1021,1 hPa 0,0 l/m² 2 min 814 W/m² 22,5 km/h (4 Bft) 95,65 %
28.04.2026 14:50 22,4 °C 30,6 °C 17,8 °C 43 % 1021,0 hPa 0,0 l/m² 2 min 814 W/m² 12,9 km/h (3 Bft) 94,87 %
28.04.2026 14:52 22,4 °C 29,4 °C 17,8 °C 43 % 1021,0 hPa 0,0 l/m² 2 min 813 W/m² 19,3 km/h (3 Bft) 97,83 %
28.04.2026 14:54 22,3 °C 30,6 °C 18,3 °C 44 % 1021,0 hPa 0,0 l/m² 2 min 808 W/m² 19,3 km/h (3 Bft) 98,00 %
28.04.2026 14:56 22,3 °C 31,1 °C 18,3 °C 43 % 1020,9 hPa 0,0 l/m² 2 min 804 W/m² 12,9 km/h (3 Bft) 97,87 %
28.04.2026 14:58 22,3 °C 30,6 °C 18,3 °C 43 % 1020,9 hPa 0,0 l/m² 2 min 800 W/m² 25,7 km/h (4 Bft) 95,74 %
28.04.2026 15:00 22,2 °C 28,9 °C 17,8 °C 42 % 1020,9 hPa 0,0 l/m² 2 min 796 W/m² 22,5 km/h (4 Bft) 95,74 %
28.04.2026 15:02 22,2 °C 29,4 °C 18,3 °C 44 % 1020,9 hPa 0,0 l/m² 2 min 793 W/m² 16,1 km/h (3 Bft) 100,00 %
28.04.2026 15:04 22,2 °C 30,0 °C 18,3 °C 44 % 1020,9 hPa 0,0 l/m² 2 min 791 W/m² 19,3 km/h (3 Bft) 100,00 %
28.04.2026 15:06 22,2 °C 30,0 °C 18,3 °C 43 % 1020,9 hPa 0,0 l/m² 2 min 790 W/m² 12,9 km/h (3 Bft) 97,96 %
28.04.2026 15:08 22,2 °C 30,0 °C 18,3 °C 43 % 1020,9 hPa 0,0 l/m² 2 min 788 W/m² 19,3 km/h (3 Bft) 100,00 %
28.04.2026 15:10 22,2 °C 30,0 °C 18,3 °C 44 % 1020,9 hPa 0,0 l/m² 2 min 781 W/m² 19,3 km/h (3 Bft) 97,87 %
28.04.2026 15:12 22,2 °C 30,6 °C 18,3 °C 44 % 1021,0 hPa 0,0 l/m² 2 min 775 W/m² 16,1 km/h (3 Bft) 97,87 %
28.04.2026 15:14 22,1 °C 30,0 °C 18,3 °C 43 % 1020,9 hPa 0,0 l/m² 2 min 776 W/m² 22,5 km/h (4 Bft) 97,87 %
28.04.2026 15:16 22,1 °C 30,0 °C 18,9 °C 44 % 1020,9 hPa 0,0 l/m² 2 min 772 W/m² 19,3 km/h (3 Bft) 100,00 %
28.04.2026 15:18 22,1 °C 28,9 °C 18,3 °C 43 % 1020,9 hPa 0,0 l/m² 2 min 771 W/m² 16,1 km/h (3 Bft) 97,78 %
28.04.2026 15:20 22,0 °C 29,4 °C 18,3 °C 44 % 1020,9 hPa 0,0 l/m² 2 min 770 W/m² 16,1 km/h (3 Bft) 98,00 %
28.04.2026 15:22 22,1 °C 28,9 °C 18,9 °C 43 % 1020,8 hPa 0,0 l/m² 2 min 767 W/m² 22,5 km/h (4 Bft) 100,00 %
28.04.2026 15:24 22,1 °C 29,4 °C 18,9 °C 43 % 1020,9 hPa 0,0 l/m² 2 min 768 W/m² 19,3 km/h (3 Bft) 97,87 %
28.04.2026 15:26 21,9 °C 28,9 °C 18,9 °C 43 % 1020,9 hPa 0,0 l/m² 2 min 762 W/m² 19,3 km/h (3 Bft) 97,87 %
28.04.2026 15:28 21,9 °C 30,0 °C 18,9 °C 43 % 1020,8 hPa 0,0 l/m² 2 min 758 W/m² 12,9 km/h (3 Bft) 97,87 %
28.04.2026 15:30 21,9 °C 30,0 °C 18,9 °C 44 % 1020,9 hPa 0,0 l/m² 2 min 754 W/m² 19,3 km/h (3 Bft) 96,00 %
28.04.2026 15:32 21,9 °C 29,4 °C 18,9 °C 43 % 1020,9 hPa 0,0 l/m² 2 min 752 W/m² 32,2 km/h (5 Bft) 97,87 %
28.04.2026 15:34 21,9 °C 28,9 °C 18,9 °C 42 % 1020,9 hPa 0,0 l/m² 2 min 751 W/m² 19,3 km/h (3 Bft) 94,29 %
28.04.2026 15:36 21,9 °C 29,4 °C 18,9 °C 45 % 1020,9 hPa 0,0 l/m² 2 min 745 W/m² 12,9 km/h (3 Bft) 98,31 %
28.04.2026 15:38 22,0 °C 28,9 °C 18,9 °C 43 % 1020,9 hPa 0,0 l/m² 2 min 739 W/m² 19,3 km/h (3 Bft) 97,83 %
28.04.2026 15:40 22,0 °C 28,9 °C 18,9 °C 42 % 1020,9 hPa 0,0 l/m² 2 min 737 W/m² 19,3 km/h (3 Bft) 97,87 %
28.04.2026 15:42 22,1 °C 29,4 °C 18,9 °C 43 % 1020,8 hPa 0,0 l/m² 2 min 735 W/m² 12,9 km/h (3 Bft) 94,74 %
28.04.2026 15:44 22,1 °C 29,4 °C 18,9 °C 42 % 1020,8 hPa 0,0 l/m² 2 min 730 W/m² 19,3 km/h (3 Bft) 98,00 %
28.04.2026 15:46 22,1 °C 29,4 °C 19,4 °C 42 % 1020,8 hPa 0,0 l/m² 2 min 727 W/m² 22,5 km/h (4 Bft) 97,87 %
28.04.2026 15:48 22,1 °C 28,3 °C 18,9 °C 42 % 1020,7 hPa 0,0 l/m² 2 min 728 W/m² 12,9 km/h (3 Bft) 97,62 %
28.04.2026 15:50 22,1 °C 28,3 °C 18,9 °C 42 % 1020,7 hPa 0,0 l/m² 2 min 719 W/m² 19,3 km/h (3 Bft) 98,11 %
28.04.2026 15:52 22,1 °C 28,3 °C 18,9 °C 42 % 1020,7 hPa 0,0 l/m² 2 min 715 W/m² 22,5 km/h (4 Bft) 98,00 %
28.04.2026 15:54 22,1 °C 28,9 °C 18,9 °C 43 % 1020,7 hPa 0,0 l/m² 2 min 711 W/m² 16,1 km/h (3 Bft) 95,74 %
28.04.2026 15:56 22,1 °C 28,3 °C 19,4 °C 43 % 1020,7 hPa 0,0 l/m² 2 min 709 W/m² 16,1 km/h (3 Bft) 100,00 %
28.04.2026 15:58 22,2 °C 28,3 °C 19,4 °C 44 % 1020,7 hPa 0,0 l/m² 2 min 703 W/m² 12,9 km/h (3 Bft) 97,87 %
28.04.2026 16:00 22,2 °C 27,2 °C 18,9 °C 43 % 1020,7 hPa 0,0 l/m² 2 min 699 W/m² 22,5 km/h (4 Bft) 95,65 %
28.04.2026 16:02 22,2 °C 28,3 °C 19,4 °C 43 % 1020,7 hPa 0,0 l/m² 2 min 696 W/m² 12,9 km/h (3 Bft) 97,87 %
28.04.2026 16:04 22,3 °C 27,8 °C 18,9 °C 42 % 1020,7 hPa 0,0 l/m² 2 min 690 W/m² 32,2 km/h (5 Bft) 97,87 %
28.04.2026 16:06 22,4 °C 28,3 °C 19,4 °C 43 % 1020,7 hPa 0,0 l/m² 2 min 687 W/m² 19,3 km/h (3 Bft) 98,31 %
28.04.2026 16:08 22,4 °C 28,3 °C 19,4 °C 43 % 1020,7 hPa 0,0 l/m² 2 min 683 W/m² 19,3 km/h (3 Bft) 97,14 %
28.04.2026 16:10 22,4 °C 27,2 °C 18,9 °C 42 % 1020,7 hPa 0,0 l/m² 2 min 681 W/m² 22,5 km/h (4 Bft) 100,00 %
28.04.2026 16:12 22,3 °C 27,2 °C 18,9 °C 43 % 1020,6 hPa 0,0 l/m² 2 min 677 W/m² 25,7 km/h (4 Bft) 97,87 %
28.04.2026 16:14 22,3 °C 26,7 °C 18,9 °C 42 % 1020,6 hPa 0,0 l/m² 2 min 671 W/m² 19,3 km/h (3 Bft) 97,87 %
28.04.2026 16:16 22,3 °C 27,2 °C 18,9 °C 42 % 1020,6 hPa 0,0 l/m² 2 min 666 W/m² 19,3 km/h (3 Bft) 93,62 %
28.04.2026 16:18 22,3 °C 26,7 °C 18,9 °C 42 % 1020,6 hPa 0,0 l/m² 2 min 663 W/m² 35,4 km/h (5 Bft) 100,00 %
28.04.2026 16:20 22,3 °C 27,8 °C 18,9 °C 42 % 1020,5 hPa 0,0 l/m² 2 min 660 W/m² 19,3 km/h (3 Bft) 95,74 %
28.04.2026 16:22 22,3 °C 28,3 °C 19,4 °C 42 % 1020,6 hPa 0,0 l/m² 2 min 657 W/m² 22,5 km/h (4 Bft) 95,74 %
28.04.2026 16:24 22,3 °C 27,8 °C 19,4 °C 43 % 1020,6 hPa 0,0 l/m² 2 min 652 W/m² 19,3 km/h (3 Bft) 100,00 %
28.04.2026 16:26 22,3 °C 28,3 °C 19,4 °C 43 % 1020,6 hPa 0,0 l/m² 2 min 649 W/m² 16,1 km/h (3 Bft) 100,00 %
28.04.2026 16:28 22,3 °C 27,2 °C 18,9 °C 42 % 1020,6 hPa 0,0 l/m² 2 min 643 W/m² 25,7 km/h (4 Bft) 97,87 %
28.04.2026 16:30 22,3 °C 27,2 °C 19,4 °C 42 % 1020,5 hPa 0,0 l/m² 2 min 638 W/m² 22,5 km/h (4 Bft) 94,74 %
28.04.2026 16:32 22,3 °C 27,8 °C 19,4 °C 42 % 1020,5 hPa 0,0 l/m² 2 min 634 W/m² 25,7 km/h (4 Bft) 95,74 %
28.04.2026 16:34 22,3 °C 26,7 °C 19,4 °C 41 % 1020,5 hPa 0,0 l/m² 2 min 630 W/m² 32,2 km/h (5 Bft) 96,36 %
28.04.2026 16:36 22,2 °C 26,7 °C 18,9 °C 41 % 1020,5 hPa 0,0 l/m² 2 min 628 W/m² 22,5 km/h (4 Bft) 91,49 %
28.04.2026 16:38 22,1 °C 26,7 °C 18,9 °C 41 % 1020,5 hPa 0,0 l/m² 2 min 624 W/m² 22,5 km/h (4 Bft) 95,74 %
28.04.2026 16:40 21,9 °C 26,7 °C 18,9 °C 42 % 1020,4 hPa 0,0 l/m² 2 min 617 W/m² 22,5 km/h (4 Bft) 94,74 %
28.04.2026 16:42 21,9 °C 27,2 °C 19,4 °C 43 % 1020,5 hPa 0,0 l/m² 2 min 614 W/m² 16,1 km/h (3 Bft) 95,74 %
28.04.2026 16:44 22,1 °C 27,8 °C 19,4 °C 43 % 1020,4 hPa 0,0 l/m² 2 min 609 W/m² 22,5 km/h (4 Bft) 95,74 %
28.04.2026 16:46 22,2 °C 27,8 °C 20,0 °C 43 % 1020,5 hPa 0,0 l/m² 2 min 604 W/m² 22,5 km/h (4 Bft) 96,23 %
28.04.2026 16:48 22,3 °C 27,8 °C 20,0 °C 42 % 1020,4 hPa 0,0 l/m² 2 min 597 W/m² 19,3 km/h (3 Bft) 95,92 %
28.04.2026 16:50 22,3 °C 27,8 °C 19,4 °C 41 % 1020,4 hPa 0,0 l/m² 2 min 592 W/m² 19,3 km/h (3 Bft) 95,74 %
28.04.2026 16:52 22,3 °C 27,2 °C 19,4 °C 42 % 1020,4 hPa 0,0 l/m² 2 min 587 W/m² 22,5 km/h (4 Bft) 92,11 %
28.04.2026 16:54 22,3 °C 27,8 °C 19,4 °C 42 % 1020,4 hPa 0,0 l/m² 2 min 584 W/m² 22,5 km/h (4 Bft) 96,00 %
28.04.2026 16:56 22,3 °C 27,2 °C 19,4 °C 42 % 1020,3 hPa 0,0 l/m² 2 min 582 W/m² 25,7 km/h (4 Bft) 93,62 %
28.04.2026 16:58 22,3 °C 27,8 °C 19,4 °C 42 % 1020,3 hPa 0,0 l/m² 2 min 577 W/m² 29,0 km/h (5 Bft) 95,74 %
28.04.2026 17:00 22,2 °C 27,8 °C 19,4 °C 41 % 1020,3 hPa 0,0 l/m² 2 min 572 W/m² 19,3 km/h (3 Bft) 95,74 %
28.04.2026 17:02 22,3 °C 27,8 °C 19,4 °C 41 % 1020,3 hPa 0,0 l/m² 2 min 565 W/m² 22,5 km/h (4 Bft) 97,87 %
28.04.2026 17:04 22,2 °C 27,8 °C 19,4 °C 41 % 1020,3 hPa 0,0 l/m² 2 min 560 W/m² 19,3 km/h (3 Bft) 97,62 %
28.04.2026 17:06 22,2 °C 27,8 °C 19,4 °C 42 % 1020,3 hPa 0,0 l/m² 2 min 553 W/m² 16,1 km/h (3 Bft) 95,74 %
28.04.2026 17:08 22,1 °C 27,8 °C 19,4 °C 42 % 1020,3 hPa 0,0 l/m² 2 min 548 W/m² 22,5 km/h (4 Bft) 96,15 %
28.04.2026 17:10 22,1 °C 27,8 °C 19,4 °C 42 % 1020,3 hPa 0,0 l/m² 2 min 543 W/m² 19,3 km/h (3 Bft) 98,00 %
28.04.2026 17:12 22,2 °C 27,8 °C 19,4 °C 42 % 1020,3 hPa 0,0 l/m² 2 min 539 W/m² 22,5 km/h (4 Bft) 100,00 %
28.04.2026 17:14 22,1 °C 27,2 °C 19,4 °C 41 % 1020,4 hPa 0,0 l/m² 2 min 533 W/m² 25,7 km/h (4 Bft) 97,87 %
28.04.2026 17:16 22,0 °C 27,2 °C 18,9 °C 41 % 1020,4 hPa 0,0 l/m² 2 min 527 W/m² 25,7 km/h (4 Bft) 97,87 %
28.04.2026 17:18 21,8 °C 27,2 °C 19,4 °C 42 % 1020,3 hPa 0,0 l/m² 2 min 522 W/m² 16,1 km/h (3 Bft) 100,00 %
28.04.2026 17:20 21,8 °C 27,2 °C 19,4 °C 43 % 1020,3 hPa 0,0 l/m² 2 min 518 W/m² 32,2 km/h (5 Bft) 100,00 %
28.04.2026 17:22 21,8 °C 27,2 °C 19,4 °C 42 % 1020,3 hPa 0,0 l/m² 2 min 511 W/m² 19,3 km/h (3 Bft) 97,96 %
28.04.2026 17:24 21,9 °C 27,2 °C 20,0 °C 42 % 1020,4 hPa 0,0 l/m² 2 min 506 W/m² 16,1 km/h (3 Bft) 100,00 %
28.04.2026 17:26 21,9 °C 27,2 °C 20,0 °C 41 % 1020,3 hPa 0,0 l/m² 2 min 503 W/m² 16,1 km/h (3 Bft) 100,00 %
28.04.2026 17:28 21,9 °C 27,8 °C 19,4 °C 41 % 1020,3 hPa 0,0 l/m² 2 min 497 W/m² 16,1 km/h (3 Bft) 98,00 %
28.04.2026 17:30 21,8 °C 27,2 °C 19,4 °C 41 % 1020,3 hPa 0,0 l/m² 2 min 491 W/m² 19,3 km/h (3 Bft) 100,00 %
28.04.2026 17:32 21,8 °C 27,2 °C 19,4 °C 41 % 1020,2 hPa 0,0 l/m² 2 min 485 W/m² 16,1 km/h (3 Bft) 100,00 %
28.04.2026 17:34 21,8 °C 26,1 °C 18,9 °C 40 % 1020,3 hPa 0,0 l/m² 2 min 481 W/m² 25,7 km/h (4 Bft) 100,00 %
28.04.2026 17:36 21,7 °C 26,7 °C 18,9 °C 41 % 1020,3 hPa 0,0 l/m² 2 min 475 W/m² 19,3 km/h (3 Bft) 100,00 %
28.04.2026 17:38 21,6 °C 26,7 °C 18,9 °C 42 % 1020,2 hPa 0,0 l/m² 2 min 470 W/m² 16,1 km/h (3 Bft) 97,37 %
28.04.2026 17:40 21,6 °C 26,7 °C 18,9 °C 42 % 1020,2 hPa 0,0 l/m² 2 min 464 W/m² 22,5 km/h (4 Bft) 100,00 %
28.04.2026 17:42 21,5 °C 25,0 °C 18,3 °C 41 % 1020,3 hPa 0,0 l/m² 2 min 458 W/m² 45,1 km/h (6 Bft) 97,87 %
28.04.2026 17:44 21,4 °C 25,0 °C 18,3 °C 41 % 1020,3 hPa 0,0 l/m² 2 min 452 W/m² 25,7 km/h (4 Bft) 100,00 %
28.04.2026 17:46 21,3 °C 26,1 °C 18,3 °C 43 % 1020,3 hPa 0,0 l/m² 2 min 446 W/m² 16,1 km/h (3 Bft) 100,00 %
28.04.2026 17:48 21,3 °C 26,1 °C 18,9 °C 42 % 1020,3 hPa 0,0 l/m² 2 min 441 W/m² 32,2 km/h (5 Bft) 100,00 %
28.04.2026 17:50 21,3 °C 26,1 °C 18,9 °C 42 % 1020,3 hPa 0,0 l/m² 2 min 437 W/m² 16,1 km/h (3 Bft) 100,00 %
28.04.2026 17:52 21,3 °C 25,6 °C 18,9 °C 41 % 1020,3 hPa 0,0 l/m² 2 min 431 W/m² 29,0 km/h (5 Bft) 100,00 %
28.04.2026 17:54 21,1 °C 25,6 °C 18,9 °C 42 % 1020,3 hPa 0,0 l/m² 2 min 425 W/m² 22,5 km/h (4 Bft) 100,00 %
28.04.2026 17:56 21,1 °C 25,0 °C 18,3 °C 42 % 1020,3 hPa 0,0 l/m² 2 min 419 W/m² 29,0 km/h (5 Bft) 100,00 %
28.04.2026 17:58 21,1 °C 25,0 °C 18,3 °C 44 % 1020,3 hPa 0,0 l/m² 2 min 413 W/m² 38,6 km/h (5 Bft) 100,00 %
28.04.2026 18:00 21,1 °C 24,4 °C 18,3 °C 42 % 1020,2 hPa 0,0 l/m² 2 min 408 W/m² 25,7 km/h (4 Bft) 100,00 %
28.04.2026 18:02 21,0 °C 25,0 °C 18,3 °C 43 % 1020,2 hPa 0,0 l/m² 2 min 403 W/m² 38,6 km/h (5 Bft) 100,00 %
28.04.2026 18:04 20,9 °C 24,4 °C 17,8 °C 43 % 1020,3 hPa 0,0 l/m² 2 min 396 W/m² 35,4 km/h (5 Bft) 97,87 %
28.04.2026 18:06 20,8 °C 25,0 °C 18,3 °C 44 % 1020,3 hPa 0,0 l/m² 2 min 391 W/m² 29,0 km/h (5 Bft) 100,00 %
28.04.2026 18:08 20,7 °C 25,6 °C 18,3 °C 44 % 1020,3 hPa 0,0 l/m² 2 min 387 W/m² 48,3 km/h (6 Bft) 97,87 %
28.04.2026 18:10 20,7 °C 25,0 °C 18,3 °C 44 % 1020,3 hPa 0,0 l/m² 2 min 382 W/m² 19,3 km/h (3 Bft) 100,00 %
28.04.2026 18:12 20,6 °C 26,1 °C 18,3 °C 45 % 1020,3 hPa 0,0 l/m² 2 min 377 W/m² 16,1 km/h (3 Bft) 100,00 %
28.04.2026 18:14 20,6 °C 26,1 °C 18,3 °C 45 % 1020,4 hPa 0,0 l/m² 2 min 372 W/m² 16,1 km/h (3 Bft) 100,00 %
28.04.2026 18:16 20,6 °C 25,6 °C 18,3 °C 45 % 1020,4 hPa 0,0 l/m² 2 min 366 W/m² 29,0 km/h (5 Bft) 100,00 %
28.04.2026 18:18 20,6 °C 25,0 °C 17,8 °C 44 % 1020,3 hPa 0,0 l/m² 2 min 362 W/m² 19,3 km/h (3 Bft) 94,74 %
28.04.2026 18:20 20,6 °C 25,6 °C 18,3 °C 44 % 1020,3 hPa 0,0 l/m² 2 min 357 W/m² 16,1 km/h (3 Bft) 100,00 %
28.04.2026 18:22 20,4 °C 25,6 °C 17,8 °C 45 % 1020,3 hPa 0,0 l/m² 2 min 350 W/m² 9,7 km/h (2 Bft) 97,87 %
28.04.2026 18:24 20,4 °C 25,6 °C 17,8 °C 45 % 1020,4 hPa 0,0 l/m² 2 min 343 W/m² 32,2 km/h (5 Bft) 97,87 %
28.04.2026 18:26 20,4 °C 25,6 °C 17,2 °C 45 % 1020,4 hPa 0,0 l/m² 2 min 336 W/m² 16,1 km/h (3 Bft) 97,87 %
28.04.2026 18:28 20,4 °C 25,6 °C 16,7 °C 45 % 1020,4 hPa 0,0 l/m² 2 min 329 W/m² 29,0 km/h (5 Bft) 100,00 %
28.04.2026 18:30 20,3 °C 25,6 °C 16,7 °C 45 % 1020,3 hPa 0,0 l/m² 2 min 323 W/m² 19,3 km/h (3 Bft) 97,87 %
28.04.2026 18:32 20,3 °C 25,6 °C 16,7 °C 46 % 1020,4 hPa 0,0 l/m² 2 min 315 W/m² 25,7 km/h (4 Bft) 98,00 %
28.04.2026 18:34 20,2 °C 25,0 °C 16,1 °C 45 % 1020,3 hPa 0,0 l/m² 2 min 308 W/m² 32,2 km/h (5 Bft) 95,74 %
28.04.2026 18:36 20,1 °C 25,0 °C 16,1 °C 46 % 1020,4 hPa 0,0 l/m² 2 min 301 W/m² 19,3 km/h (3 Bft) 95,74 %
28.04.2026 18:38 20,0 °C 24,4 °C 16,1 °C 45 % 1020,4 hPa 0,0 l/m² 2 min 295 W/m² 19,3 km/h (3 Bft) 95,74 %
28.04.2026 18:40 19,9 °C 24,4 °C 15,6 °C 46 % 1020,4 hPa 0,0 l/m² 2 min 287 W/m² 19,3 km/h (3 Bft) 94,74 %
28.04.2026 18:42 19,8 °C 23,9 °C 15,6 °C 46 % 1020,5 hPa 0,0 l/m² 2 min 279 W/m² 22,5 km/h (4 Bft) 95,74 %
28.04.2026 18:44 19,7 °C 22,8 °C 15,6 °C 46 % 1020,5 hPa 0,0 l/m² 2 min 272 W/m² 19,3 km/h (3 Bft) 95,74 %
28.04.2026 18:46 19,6 °C 21,1 °C 15,6 °C 46 % 1020,5 hPa 0,0 l/m² 2 min 265 W/m² 16,1 km/h (3 Bft) 95,92 %
28.04.2026 18:48 19,4 °C 20,6 °C 15,0 °C 47 % 1020,5 hPa 0,0 l/m² 2 min 259 W/m² 16,1 km/h (3 Bft) 96,00 %
28.04.2026 18:50 19,3 °C 19,4 °C 15,0 °C 47 % 1020,5 hPa 0,0 l/m² 2 min 252 W/m² 19,3 km/h (3 Bft) 95,74 %
28.04.2026 18:52 19,2 °C 18,9 °C 15,0 °C 47 % 1020,4 hPa 0,0 l/m² 2 min 244 W/m² 12,9 km/h (3 Bft) 95,74 %
28.04.2026 18:54 19,2 °C 18,9 °C 15,0 °C 47 % 1020,5 hPa 0,0 l/m² 2 min 235 W/m² 19,3 km/h (3 Bft) 94,00 %
28.04.2026 18:56 19,1 °C 18,9 °C 14,4 °C 47 % 1020,6 hPa 0,0 l/m² 2 min 228 W/m² 25,7 km/h (4 Bft) 95,74 %
28.04.2026 18:58 18,9 °C 18,3 °C 14,4 °C 47 % 1020,5 hPa 0,0 l/m² 2 min 221 W/m² 22,5 km/h (4 Bft) 95,65 %
28.04.2026 19:00 18,9 °C 18,3 °C 14,4 °C 47 % 1020,5 hPa 0,0 l/m² 2 min 213 W/m² 12,9 km/h (3 Bft) 95,74 %
28.04.2026 19:02 18,8 °C 18,3 °C 14,4 °C 47 % 1020,6 hPa 0,0 l/m² 2 min 140 W/m² 35,4 km/h (5 Bft) 95,74 %
28.04.2026 19:04 18,7 °C 18,3 °C 14,4 °C 47 % 1020,6 hPa 0,0 l/m² 0 min 57 W/m² 19,3 km/h (3 Bft) 93,33 %
28.04.2026 19:06 18,6 °C 18,3 °C 14,4 °C 48 % 1020,5 hPa 0,0 l/m² 0 min 47 W/m² 22,5 km/h (4 Bft) 91,43 %
28.04.2026 19:08 18,5 °C 18,3 °C 14,4 °C 47 % 1020,5 hPa 0,0 l/m² 0 min 46 W/m² 19,3 km/h (3 Bft) 96,77 %
28.04.2026 19:10 18,4 °C 17,8 °C 14,4 °C 48 % 1020,6 hPa 0,0 l/m² 0 min 44 W/m² 19,3 km/h (3 Bft) 93,62 %
28.04.2026 19:12 18,3 °C 17,8 °C 14,4 °C 48 % 1020,6 hPa 0,0 l/m² 0 min 43 W/m² 16,1 km/h (3 Bft) 97,87 %
28.04.2026 19:14 18,2 °C 17,8 °C 13,9 °C 48 % 1020,6 hPa 0,0 l/m² 0 min 42 W/m² 16,1 km/h (3 Bft) 100,00 %
28.04.2026 19:16 18,2 °C 17,8 °C 13,9 °C 48 % 1020,6 hPa 0,0 l/m² 0 min 42 W/m² 22,5 km/h (4 Bft) 93,48 %
28.04.2026 19:18 18,1 °C 17,8 °C 13,9 °C 48 % 1020,7 hPa 0,0 l/m² 0 min 40 W/m² 12,9 km/h (3 Bft) 93,62 %
28.04.2026 19:20 18,1 °C 17,8 °C 13,9 °C 48 % 1020,7 hPa 0,0 l/m² 0 min 40 W/m² 12,9 km/h (3 Bft) 95,74 %
28.04.2026 19:22 18,0 °C 17,8 °C 13,9 °C 49 % 1020,7 hPa 0,0 l/m² 0 min 39 W/m² 19,3 km/h (3 Bft) 96,00 %
28.04.2026 19:24 18,0 °C 17,8 °C 13,9 °C 48 % 1020,7 hPa 0,0 l/m² 0 min 39 W/m² 22,5 km/h (4 Bft) 97,87 %
28.04.2026 19:26 17,9 °C 17,2 °C 13,9 °C 48 % 1020,7 hPa 0,0 l/m² 0 min 39 W/m² 19,3 km/h (3 Bft) 97,87 %
28.04.2026 19:28 17,9 °C 17,2 °C 13,3 °C 48 % 1020,7 hPa 0,0 l/m² 0 min 37 W/m² 22,5 km/h (4 Bft) 97,87 %
28.04.2026 19:30 17,8 °C 17,2 °C 13,3 °C 48 % 1020,8 hPa 0,0 l/m² 0 min 37 W/m² 16,1 km/h (3 Bft) 97,87 %
28.04.2026 19:32 17,8 °C 17,2 °C 13,3 °C 49 % 1020,8 hPa 0,0 l/m² 0 min 35 W/m² 16,1 km/h (3 Bft) 95,65 %
28.04.2026 19:34 17,7 °C 17,2 °C 13,3 °C 48 % 1020,8 hPa 0,0 l/m² 0 min 35 W/m² 12,9 km/h (3 Bft) 98,00 %
28.04.2026 19:36 17,7 °C 17,2 °C 13,3 °C 48 % 1020,8 hPa 0,0 l/m² 0 min 35 W/m² 16,1 km/h (3 Bft) 94,00 %
28.04.2026 19:38 17,6 °C 16,7 °C 13,3 °C 49 % 1020,8 hPa 0,0 l/m² 0 min 33 W/m² 19,3 km/h (3 Bft) 97,37 %
28.04.2026 19:40 17,6 °C 16,7 °C 13,3 °C 49 % 1020,9 hPa 0,0 l/m² 0 min 33 W/m² 12,9 km/h (3 Bft) 97,87 %
28.04.2026 19:42 17,5 °C 16,7 °C 13,3 °C 48 % 1020,8 hPa 0,0 l/m² 0 min 32 W/m² 32,2 km/h (5 Bft) 94,00 %
28.04.2026 19:44 17,5 °C 16,7 °C 13,3 °C 48 % 1020,9 hPa 0,0 l/m² 0 min 32 W/m² 22,5 km/h (4 Bft) 98,00 %
28.04.2026 19:46 17,4 °C 16,7 °C 13,3 °C 48 % 1020,9 hPa 0,0 l/m² 0 min 30 W/m² 12,9 km/h (3 Bft) 97,56 %
28.04.2026 19:48 17,4 °C 16,7 °C 13,3 °C 48 % 1020,9 hPa 0,0 l/m² 0 min 30 W/m² 22,5 km/h (4 Bft) 97,87 %
28.04.2026 19:50 17,3 °C 16,7 °C 13,3 °C 49 % 1020,9 hPa 0,0 l/m² 0 min 28 W/m² 16,1 km/h (3 Bft) 97,83 %
28.04.2026 19:52 17,3 °C 16,7 °C 12,8 °C 49 % 1020,9 hPa 0,0 l/m² 0 min 28 W/m² 16,1 km/h (3 Bft) 100,00 %
28.04.2026 19:54 17,2 °C 16,7 °C 12,8 °C 48 % 1020,9 hPa 0,0 l/m² 0 min 26 W/m² 9,7 km/h (2 Bft) 95,74 %
28.04.2026 19:56 17,2 °C 16,1 °C 12,8 °C 49 % 1020,9 hPa 0,0 l/m² 0 min 26 W/m² 12,9 km/h (3 Bft) 97,87 %
28.04.2026 19:58 17,1 °C 16,1 °C 12,8 °C 49 % 1020,9 hPa 0,0 l/m² 0 min 25 W/m² 16,1 km/h (3 Bft) 100,00 %
28.04.2026 20:00 17,1 °C 16,1 °C 12,8 °C 49 % 1021,0 hPa 0,0 l/m² 0 min 25 W/m² 16,1 km/h (3 Bft) 100,00 %
28.04.2026 20:02 17,1 °C 16,1 °C 12,8 °C 49 % 1021,0 hPa 0,0 l/m² 0 min 25 W/m² 25,7 km/h (4 Bft) 100,00 %
28.04.2026 20:04 16,9 °C 16,1 °C 12,8 °C 49 % 1021,0 hPa 0,0 l/m² 0 min 23 W/m² 16,1 km/h (3 Bft) 95,74 %
28.04.2026 20:06 16,9 °C 16,1 °C 12,8 °C 49 % 1021,1 hPa 0,0 l/m² 0 min 22 W/m² 12,9 km/h (3 Bft) 100,00 %
28.04.2026 20:08 16,8 °C 16,1 °C 12,8 °C 49 % 1021,1 hPa 0,0 l/m² 0 min 21 W/m² 9,7 km/h (2 Bft) 98,15 %
28.04.2026 20:10 16,8 °C 15,6 °C 12,2 °C 49 % 1021,1 hPa 0,0 l/m² 0 min 21 W/m² 16,1 km/h (3 Bft) 100,00 %
28.04.2026 20:12 16,7 °C 15,6 °C 12,2 °C 49 % 1021,1 hPa 0,0 l/m² 0 min 19 W/m² 25,7 km/h (4 Bft) 100,00 %
28.04.2026 20:14 16,7 °C 15,6 °C 12,2 °C 48 % 1021,2 hPa 0,0 l/m² 0 min 19 W/m² 9,7 km/h (2 Bft) 100,00 %
28.04.2026 20:16 16,7 °C 15,6 °C 12,2 °C 49 % 1021,2 hPa 0,0 l/m² 0 min 18 W/m² 16,1 km/h (3 Bft) 95,74 %
28.04.2026 20:18 16,6 °C 15,6 °C 12,2 °C 49 % 1021,2 hPa 0,0 l/m² 0 min 18 W/m² 12,9 km/h (3 Bft) 97,87 %
28.04.2026 20:20 16,6 °C 15,6 °C 12,2 °C 49 % 1021,2 hPa 0,0 l/m² 0 min 17 W/m² 16,1 km/h (3 Bft) 100,00 %
28.04.2026 20:22 16,5 °C 15,6 °C 12,2 °C 49 % 1021,3 hPa 0,0 l/m² 0 min 16 W/m² 22,5 km/h (4 Bft) 100,00 %
28.04.2026 20:24 16,4 °C 15,6 °C 12,2 °C 49 % 1021,3 hPa 0,0 l/m² 0 min 15 W/m² 25,7 km/h (4 Bft) 100,00 %
28.04.2026 20:26 16,4 °C 15,6 °C 12,2 °C 49 % 1021,3 hPa 0,0 l/m² 0 min 14 W/m² 16,1 km/h (3 Bft) 100,00 %
28.04.2026 20:28 16,4 °C 15,6 °C 12,2 °C 49 % 1021,3 hPa 0,0 l/m² 0 min 14 W/m² 12,9 km/h (3 Bft) 98,00 %
28.04.2026 20:30 16,3 °C 15,6 °C 12,2 °C 49 % 1021,4 hPa 0,0 l/m² 0 min 12 W/m² 22,5 km/h (4 Bft) 97,87 %
28.04.2026 20:32 16,3 °C 15,0 °C 11,7 °C 50 % 1021,3 hPa 0,0 l/m² 0 min 12 W/m² 9,7 km/h (2 Bft) 97,87 %
28.04.2026 20:34 16,2 °C 15,0 °C 11,7 °C 50 % 1021,4 hPa 0,0 l/m² 0 min 11 W/m² 12,9 km/h (3 Bft) 97,87 %
28.04.2026 20:36 16,2 °C 15,0 °C 11,7 °C 50 % 1021,4 hPa 0,0 l/m² 0 min 11 W/m² 9,7 km/h (2 Bft) 94,29 %
28.04.2026 20:38 16,1 °C 15,0 °C 11,7 °C 50 % 1021,5 hPa 0,0 l/m² 0 min 10 W/m² 16,1 km/h (3 Bft) 98,00 %
28.04.2026 20:40 16,1 °C 15,0 °C 11,7 °C 50 % 1021,4 hPa 0,0 l/m² 0 min 9 W/m² 25,7 km/h (4 Bft) 97,83 %
28.04.2026 20:42 16,0 °C 15,0 °C 11,7 °C 50 % 1021,5 hPa 0,0 l/m² 0 min 8 W/m² 16,1 km/h (3 Bft) 97,87 %
28.04.2026 20:44 16,0 °C 15,0 °C 11,7 °C 50 % 1021,4 hPa 0,0 l/m² 0 min 7 W/m² 16,1 km/h (3 Bft) 97,87 %
28.04.2026 20:46 15,9 °C 15,0 °C 11,7 °C 50 % 1021,5 hPa 0,0 l/m² 0 min 7 W/m² 16,1 km/h (3 Bft) 97,87 %
28.04.2026 20:48 15,9 °C 15,0 °C 11,7 °C 50 % 1021,4 hPa 0,0 l/m² 0 min 5 W/m² 16,1 km/h (3 Bft) 95,74 %
28.04.2026 20:50 15,8 °C 14,4 °C 11,1 °C 51 % 1021,5 hPa 0,0 l/m² 0 min 5 W/m² 12,9 km/h (3 Bft) 97,87 %
28.04.2026 20:52 15,8 °C 14,4 °C 11,1 °C 51 % 1021,6 hPa 0,0 l/m² 0 min 3 W/m² 12,9 km/h (3 Bft) 96,00 %
28.04.2026 20:54 15,8 °C 14,4 °C 11,1 °C 51 % 1021,6 hPa 0,0 l/m² 0 min 0 W/m² 16,1 km/h (3 Bft) 97,83 %
28.04.2026 20:56 15,7 °C 14,4 °C 11,1 °C 52 % 1021,6 hPa 0,0 l/m² 0 min 0 W/m² 6,4 km/h (2 Bft) 97,87 %
28.04.2026 20:58 15,7 °C 14,4 °C 11,1 °C 52 % 1021,6 hPa 0,0 l/m² 0 min 0 W/m² 9,7 km/h (2 Bft) 97,87 %
28.04.2026 21:00 15,6 °C 14,4 °C 11,1 °C 52 % 1021,6 hPa 0,0 l/m² 0 min 0 W/m² 12,9 km/h (3 Bft) 96,00 %
28.04.2026 21:02 15,6 °C 14,4 °C 11,1 °C 52 % 1021,6 hPa 0,0 l/m² 0 min 0 W/m² 12,9 km/h (3 Bft) 95,74 %
28.04.2026 21:04 15,5 °C 14,4 °C 11,1 °C 52 % 1021,7 hPa 0,0 l/m² 0 min 0 W/m² 16,1 km/h (3 Bft) 98,00 %
28.04.2026 21:06 15,4 °C 13,9 °C 11,1 °C 52 % 1021,7 hPa 0,0 l/m² 0 min 0 W/m² 9,7 km/h (2 Bft) 97,96 %
28.04.2026 21:08 15,3 °C 13,9 °C 11,1 °C 52 % 1021,7 hPa 0,0 l/m² 0 min 0 W/m² 16,1 km/h (3 Bft) 94,44 %
28.04.2026 21:10 15,3 °C 13,9 °C 11,1 °C 52 % 1021,8 hPa 0,0 l/m² 0 min 0 W/m² 16,1 km/h (3 Bft) 97,96 %
28.04.2026 21:12 15,2 °C 13,9 °C 10,6 °C 52 % 1021,8 hPa 0,0 l/m² 0 min 0 W/m² 12,9 km/h (3 Bft) 96,00 %
28.04.2026 21:14 15,2 °C 13,9 °C 10,6 °C 52 % 1021,8 hPa 0,0 l/m² 0 min 0 W/m² 9,7 km/h (2 Bft) 95,24 %
28.04.2026 21:16 15,2 °C 13,9 °C 10,6 °C 52 % 1021,8 hPa 0,0 l/m² 0 min 0 W/m² 9,7 km/h (2 Bft) 98,15 %
28.04.2026 21:18 15,1 °C 13,9 °C 10,6 °C 52 % 1021,8 hPa 0,0 l/m² 0 min 0 W/m² 16,1 km/h (3 Bft) 98,00 %
28.04.2026 21:20 15,1 °C 13,9 °C 10,6 °C 53 % 1021,9 hPa 0,0 l/m² 0 min 0 W/m² 9,7 km/h (2 Bft) 94,29 %
28.04.2026 21:22 15,1 °C 13,9 °C 10,6 °C 53 % 1021,9 hPa 0,0 l/m² 0 min 0 W/m² 16,1 km/h (3 Bft) 97,87 %
28.04.2026 21:24 15,0 °C 13,9 °C 10,6 °C 53 % 1021,9 hPa 0,0 l/m² 0 min 0 W/m² 16,1 km/h (3 Bft) 97,87 %
28.04.2026 21:26 14,9 °C 13,9 °C 10,6 °C 53 % 1021,9 hPa 0,0 l/m² 0 min 0 W/m² 9,7 km/h (2 Bft) 93,62 %
28.04.2026 21:28 14,9 °C 13,9 °C 10,6 °C 53 % 1022,0 hPa 0,0 l/m² 0 min 0 W/m² 12,9 km/h (3 Bft) 95,92 %
28.04.2026 21:30 14,8 °C 13,9 °C 10,6 °C 53 % 1022,0 hPa 0,0 l/m² 0 min 0 W/m² 12,9 km/h (3 Bft) 95,74 %
28.04.2026 21:32 14,8 °C 13,9 °C 10,6 °C 53 % 1022,1 hPa 0,0 l/m² 0 min 0 W/m² 19,3 km/h (3 Bft) 93,62 %
28.04.2026 21:34 14,8 °C 13,9 °C 10,6 °C 53 % 1022,1 hPa 0,0 l/m² 0 min 0 W/m² 9,7 km/h (2 Bft) 97,87 %
28.04.2026 21:36 14,8 °C 13,9 °C 10,6 °C 53 % 1022,1 hPa 0,0 l/m² 0 min 0 W/m² 12,9 km/h (3 Bft) 100,00 %
28.04.2026 21:38 14,7 °C 13,9 °C 10,6 °C 53 % 1022,1 hPa 0,0 l/m² 0 min 0 W/m² 9,7 km/h (2 Bft) 95,74 %
28.04.2026 21:40 14,7 °C 13,3 °C 10,6 °C 53 % 1022,2 hPa 0,0 l/m² 0 min 0 W/m² 12,9 km/h (3 Bft) 97,83 %
28.04.2026 21:42 14,7 °C 13,3 °C 10,6 °C 53 % 1022,2 hPa 0,0 l/m² 0 min 0 W/m² 9,7 km/h (2 Bft) 100,00 %
28.04.2026 21:44 14,6 °C 13,3 °C 10,0 °C 54 % 1022,3 hPa 0,0 l/m² 0 min 0 W/m² 9,7 km/h (2 Bft) 97,87 %
28.04.2026 21:46 14,6 °C 13,3 °C 10,0 °C 53 % 1022,2 hPa 0,0 l/m² 0 min 0 W/m² 19,3 km/h (3 Bft) 100,00 %
28.04.2026 21:48 14,5 °C 13,3 °C 10,0 °C 53 % 1022,3 hPa 0,0 l/m² 0 min 0 W/m² 16,1 km/h (3 Bft) 100,00 %
28.04.2026 21:50 14,4 °C 13,3 °C 10,0 °C 53 % 1022,3 hPa 0,0 l/m² 0 min 0 W/m² 16,1 km/h (3 Bft) 97,87 %
28.04.2026 21:52 14,4 °C 13,3 °C 10,0 °C 53 % 1022,4 hPa 0,0 l/m² 0 min 0 W/m² 9,7 km/h (2 Bft) 97,87 %
28.04.2026 21:54 14,3 °C 13,3 °C 10,0 °C 53 % 1022,4 hPa 0,0 l/m² 0 min 0 W/m² 16,1 km/h (3 Bft) 100,00 %
28.04.2026 21:56 14,3 °C 13,3 °C 10,0 °C 52 % 1022,4 hPa 0,0 l/m² 0 min 0 W/m² 12,9 km/h (3 Bft) 97,96 %
28.04.2026 21:58 14,3 °C 13,3 °C 10,0 °C 52 % 1022,4 hPa 0,0 l/m² 0 min 0 W/m² 16,1 km/h (3 Bft) 97,87 %
28.04.2026 22:00 14,3 °C 13,3 °C 10,0 °C 52 % 1022,4 hPa 0,0 l/m² 0 min 0 W/m² 16,1 km/h (3 Bft) 94,74 %
28.04.2026 22:02 14,3 °C 13,3 °C 10,0 °C 53 % 1022,5 hPa 0,0 l/m² 0 min 0 W/m² 9,7 km/h (2 Bft) 95,74 %
28.04.2026 22:04 14,3 °C 13,3 °C 10,0 °C 52 % 1022,5 hPa 0,0 l/m² 0 min 0 W/m² 12,9 km/h (3 Bft) 98,00 %
28.04.2026 22:06 14,3 °C 13,3 °C 10,0 °C 53 % 1022,5 hPa 0,0 l/m² 0 min 0 W/m² 9,7 km/h (2 Bft) 96,00 %
28.04.2026 22:08 14,2 °C 12,8 °C 10,0 °C 52 % 1022,5 hPa 0,0 l/m² 0 min 0 W/m² 9,7 km/h (2 Bft) 95,74 %
28.04.2026 22:10 14,2 °C 12,8 °C 9,4 °C 53 % 1022,6 hPa 0,0 l/m² 0 min 0 W/m² 16,1 km/h (3 Bft) 93,62 %
28.04.2026 22:12 14,1 °C 12,8 °C 9,4 °C 53 % 1022,6 hPa 0,0 l/m² 0 min 0 W/m² 12,9 km/h (3 Bft) 97,96 %
28.04.2026 22:14 14,1 °C 12,8 °C 9,4 °C 53 % 1022,7 hPa 0,0 l/m² 0 min 0 W/m² 12,9 km/h (3 Bft) 95,74 %
28.04.2026 22:16 14,0 °C 12,8 °C 9,4 °C 52 % 1022,7 hPa 0,0 l/m² 0 min 0 W/m² 16,1 km/h (3 Bft) 95,74 %
28.04.2026 22:18 14,0 °C 12,8 °C 9,4 °C 53 % 1022,7 hPa 0,0 l/m² 0 min 0 W/m² 12,9 km/h (3 Bft) 93,62 %
28.04.2026 22:20 13,9 °C 12,8 °C 9,4 °C 53 % 1022,7 hPa 0,0 l/m² 0 min 0 W/m² 12,9 km/h (3 Bft) 91,49 %
28.04.2026 22:22 13,9 °C 12,8 °C 9,4 °C 53 % 1022,7 hPa 0,0 l/m² 0 min 0 W/m² 12,9 km/h (3 Bft) 93,62 %
28.04.2026 22:24 13,8 °C 12,8 °C 9,4 °C 53 % 1022,7 hPa 0,0 l/m² 0 min 0 W/m² 12,9 km/h (3 Bft) 93,62 %
28.04.2026 22:26 13,8 °C 12,8 °C 9,4 °C 53 % 1022,7 hPa 0,0 l/m² 0 min 0 W/m² 9,7 km/h (2 Bft) 95,74 %
28.04.2026 22:28 13,7 °C 12,8 °C 9,4 °C 53 % 1022,7 hPa 0,0 l/m² 0 min 0 W/m² 12,9 km/h (3 Bft) 95,65 %
28.04.2026 22:30 13,7 °C 12,2 °C 9,4 °C 53 % 1022,7 hPa 0,0 l/m² 0 min 0 W/m² 9,7 km/h (2 Bft) 95,83 %
28.04.2026 22:32 13,7 °C 12,2 °C 9,4 °C 53 % 1022,8 hPa 0,0 l/m² 0 min 0 W/m² 12,9 km/h (3 Bft) 95,52 %
28.04.2026 22:34 13,6 °C 12,2 °C 9,4 °C 53 % 1022,8 hPa 0,0 l/m² 0 min 0 W/m² 9,7 km/h (2 Bft) 94,00 %
28.04.2026 22:36 13,6 °C 12,2 °C 8,9 °C 53 % 1022,8 hPa 0,0 l/m² 0 min 0 W/m² 6,4 km/h (2 Bft) 95,74 %
28.04.2026 22:38 13,5 °C 12,2 °C 8,9 °C 53 % 1022,8 hPa 0,0 l/m² 0 min 0 W/m² 9,7 km/h (2 Bft) 93,62 %
28.04.2026 22:40 13,4 °C 12,2 °C 8,9 °C 53 % 1022,8 hPa 0,0 l/m² 0 min 0 W/m² 9,7 km/h (2 Bft) 91,49 %
28.04.2026 22:42 13,4 °C 12,2 °C 8,9 °C 53 % 1022,8 hPa 0,0 l/m² 0 min 0 W/m² 6,4 km/h (2 Bft) 95,65 %
28.04.2026 22:44 13,4 °C 12,2 °C 8,9 °C 53 % 1022,8 hPa 0,0 l/m² 0 min 0 W/m² 9,7 km/h (2 Bft) 95,74 %
28.04.2026 22:46 13,3 °C 12,2 °C 8,9 °C 53 % 1022,9 hPa 0,0 l/m² 0 min 0 W/m² 16,1 km/h (3 Bft) 94,74 %
28.04.2026 22:48 13,3 °C 12,2 °C 8,9 °C 53 % 1022,9 hPa 0,0 l/m² 0 min 0 W/m² 12,9 km/h (3 Bft) 100,00 %
28.04.2026 22:50 13,3 °C 12,2 °C 8,9 °C 53 % 1022,9 hPa 0,0 l/m² 0 min 0 W/m² 12,9 km/h (3 Bft) 97,87 %
28.04.2026 22:52 13,2 °C 12,2 °C 8,9 °C 53 % 1022,9 hPa 0,0 l/m² 0 min 0 W/m² 16,1 km/h (3 Bft) 100,00 %
28.04.2026 22:54 13,2 °C 12,2 °C 8,9 °C 53 % 1022,9 hPa 0,0 l/m² 0 min 0 W/m² 6,4 km/h (2 Bft) 97,87 %
28.04.2026 22:56 13,2 °C 12,2 °C 8,9 °C 53 % 1023,0 hPa 0,0 l/m² 0 min 0 W/m² 9,7 km/h (2 Bft) 100,00 %
28.04.2026 22:58 13,2 °C 12,2 °C 8,9 °C 53 % 1023,0 hPa 0,0 l/m² 0 min 0 W/m² 6,4 km/h (2 Bft) 100,00 %
28.04.2026 23:00 13,1 °C 11,7 °C 8,9 °C 53 % 1023,0 hPa 0,0 l/m² 0 min 0 W/m² 12,9 km/h (3 Bft) 100,00 %
28.04.2026 23:02 13,1 °C 12,2 °C 8,9 °C 53 % 1023,1 hPa 0,0 l/m² 0 min 0 W/m² 6,4 km/h (2 Bft) 98,00 %
28.04.2026 23:04 13,1 °C 11,7 °C 8,9 °C 53 % 1023,0 hPa 0,0 l/m² 0 min 0 W/m² 12,9 km/h (3 Bft) 100,00 %
28.04.2026 23:06 13,0 °C 11,7 °C 8,9 °C 53 % 1023,1 hPa 0,0 l/m² 0 min 0 W/m² 6,4 km/h (2 Bft) 97,87 %
28.04.2026 23:08 12,9 °C 11,7 °C 8,3 °C 54 % 1023,1 hPa 0,0 l/m² 0 min 0 W/m² 9,7 km/h (2 Bft) 100,00 %
28.04.2026 23:10 12,9 °C 11,7 °C 8,9 °C 53 % 1023,1 hPa 0,0 l/m² 0 min 0 W/m² 9,7 km/h (2 Bft) 97,87 %
28.04.2026 23:12 12,9 °C 11,7 °C 8,3 °C 54 % 1023,2 hPa 0,0 l/m² 0 min 0 W/m² 6,4 km/h (2 Bft) 100,00 %
28.04.2026 23:14 12,8 °C 11,7 °C 8,3 °C 54 % 1023,2 hPa 0,0 l/m² 0 min 0 W/m² 9,7 km/h (2 Bft) 97,96 %
28.04.2026 23:16 12,8 °C 11,7 °C 8,3 °C 54 % 1023,2 hPa 0,0 l/m² 0 min 0 W/m² 6,4 km/h (2 Bft) 100,00 %
28.04.2026 23:18 12,8 °C 11,7 °C 8,3 °C 54 % 1023,2 hPa 0,0 l/m² 0 min 0 W/m² 9,7 km/h (2 Bft) 97,96 %
28.04.2026 23:20 12,7 °C 11,7 °C 8,3 °C 54 % 1023,2 hPa 0,0 l/m² 0 min 0 W/m² 9,7 km/h (2 Bft) 98,00 %
28.04.2026 23:22 12,7 °C 11,7 °C 8,3 °C 54 % 1023,2 hPa 0,0 l/m² 0 min 0 W/m² 9,7 km/h (2 Bft) 97,87 %
28.04.2026 23:24 12,7 °C 11,7 °C 8,3 °C 54 % 1023,3 hPa 0,0 l/m² 0 min 0 W/m² 6,4 km/h (2 Bft) 98,00 %
28.04.2026 23:26 12,6 °C 11,7 °C 8,3 °C 55 % 1023,3 hPa 0,0 l/m² 0 min 0 W/m² 9,7 km/h (2 Bft) 97,62 %
28.04.2026 23:28 12,6 °C 11,7 °C 8,3 °C 54 % 1023,3 hPa 0,0 l/m² 0 min 0 W/m² 12,9 km/h (3 Bft) 97,87 %
28.04.2026 23:30 12,6 °C 11,7 °C 8,3 °C 54 % 1023,3 hPa 0,0 l/m² 0 min 0 W/m² 16,1 km/h (3 Bft) 95,92 %
28.04.2026 23:32 12,5 °C 11,1 °C 8,3 °C 54 % 1023,4 hPa 0,0 l/m² 0 min 0 W/m² 12,9 km/h (3 Bft) 97,87 %
28.04.2026 23:34 12,5 °C 11,1 °C 8,3 °C 55 % 1023,4 hPa 0,0 l/m² 0 min 0 W/m² 6,4 km/h (2 Bft) 97,87 %
28.04.2026 23:36 12,4 °C 11,1 °C 8,3 °C 54 % 1023,4 hPa 0,0 l/m² 0 min 0 W/m² 12,9 km/h (3 Bft) 97,87 %
28.04.2026 23:38 12,4 °C 11,1 °C 8,3 °C 54 % 1023,4 hPa 0,0 l/m² 0 min 0 W/m² 6,4 km/h (2 Bft) 97,87 %
28.04.2026 23:40 12,4 °C 11,1 °C 7,8 °C 54 % 1023,5 hPa 0,0 l/m² 0 min 0 W/m² 9,7 km/h (2 Bft) 97,87 %
28.04.2026 23:42 12,3 °C 11,1 °C 7,8 °C 54 % 1023,5 hPa 0,0 l/m² 0 min 0 W/m² 9,7 km/h (2 Bft) 97,62 %
28.04.2026 23:44 12,3 °C 11,1 °C 7,8 °C 54 % 1023,6 hPa 0,0 l/m² 0 min 0 W/m² 9,7 km/h (2 Bft) 95,74 %
28.04.2026 23:46 12,3 °C 11,1 °C 7,8 °C 55 % 1023,6 hPa 0,0 l/m² 0 min 0 W/m² 6,4 km/h (2 Bft) 97,83 %
28.04.2026 23:48 12,3 °C 11,1 °C 7,8 °C 55 % 1023,6 hPa 0,0 l/m² 0 min 0 W/m² 9,7 km/h (2 Bft) 93,62 %
28.04.2026 23:50 12,2 °C 11,1 °C 7,8 °C 55 % 1023,6 hPa 0,0 l/m² 0 min 0 W/m² 9,7 km/h (2 Bft) 97,87 %
28.04.2026 23:52 12,2 °C 11,1 °C 7,8 °C 55 % 1023,6 hPa 0,0 l/m² 0 min 0 W/m² 9,7 km/h (2 Bft) 98,00 %
28.04.2026 23:54 12,2 °C 11,1 °C 7,8 °C 55 % 1023,7 hPa 0,0 l/m² 0 min 0 W/m² 9,7 km/h (2 Bft) 95,74 %
28.04.2026 23:56 12,2 °C 11,1 °C 7,8 °C 55 % 1023,7 hPa 0,0 l/m² 0 min 0 W/m² 12,9 km/h (3 Bft) 95,74 %
28.04.2026 23:58 12,1 °C 11,1 °C 7,8 °C 55 % 1023,7 hPa 0,0 l/m² 0 min 0 W/m² 9,7 km/h (2 Bft) 97,87 %
_ Min-Zeit 06:00 05:34 04:46 17:34 17:32 - - - 00:20 03:04
Minimum _ 8,3 °C 7,2 °C 4,4 °C 40 % 1020,2 hPa - - - 3,2 km/h (1 Bft) 87,23 %
_ Max-Zeit 14:46 13:38 13:34 06:10 23:54 00:00 08:42 13:38 18:08 00:08
Maximum _ 22,5 °C 32,2 °C 22,8 °C 76 % 1023,7 hPa 0,0 l/m² 2 min 865 W/m² 48,3 km/h
O-NO (6 Bft)
100,00 %
Durchschnitt _ 14,9 °C 16,9 °C 11,3 °C 58 % 1021,2 hPa #0,0 l/m² #9:45 h 443 W/m² 13,7 km/h (3 Bft) 97,35 %
© 2026 W. Hausmann